FW6434 Weather Reports


time (UTC)temp
C
wind
direction
speed
KPH
gust
KPH
rain 1hr
cm
rain 24hr
cm
rain mn
cm
humidity
%
barometer
mb
20260508055036 9 171 0.0 3.2 0.00 0.51 0.81 100 1015.7
20260508055016 9 171 0.0 3.2 0.00 0.51 0.81 100 1015.9
20260508054917 8 184 0.0 3.2 0.00 0.51 0.81 100 1015.8
20260508054816 8 185 0.0 3.2 0.00 0.51 0.81 100 1015.7
20260508054715 8 176 0.0 3.2 0.00 0.51 0.81 100 1015.8
20260508054616 8 180 0.0 3.2 0.00 0.51 0.81 100 1015.6
20260508054537 8 165 0.0 3.2 0.00 0.51 0.81 100 1015.6
20260508054516 8 165 0.0 3.2 0.00 0.51 0.81 100 1015.7
20260508054417 8 125 0.0 1.6 0.00 0.51 0.81 100 1015.7
20260508054316 8 182 0.0 1.6 0.00 0.51 0.81 100 1015.6
20260508054216 8 173 0.0 0.0 0.00 0.51 0.81 100 1015.7
20260508054116 8 162 0.0 0.0 0.00 0.51 0.81 100 1015.6
20260508054035 8 155 0.0 0.0 0.00 0.51 0.81 100 1015.6
20260508054016 8 151 0.0 0.0 0.00 0.51 0.81 100 1015.7
20260508053952 8 145 0.0 0.0 0.00 0.51 0.81 100 1015.9
20260508053936 9 158 0.0 0.0 0.00 0.51 0.81 100 1015.8
20260508053616 9 169 0.0 0.0 0.00 0.51 0.81 100 1015.7
20260508053536 9 163 0.0 0.0 0.00 0.51 0.81 100 1015.7
20260508053516 9 180 0.0 0.0 0.00 0.51 0.81 100 1015.9
20260508053425 9 188 0.0 0.0 0.00 0.51 0.81 100 1015.8
20260508053419 9 186 0.0 0.0 0.00 0.51 0.81 100 1015.9
20260508053404 9 172 0.0 0.0 0.00 0.51 0.81 100 1016.0
20260508053348 9 180 0.0 0.0 0.00 0.51 0.81 100 1015.8
20260508053110 9 185 0.0 0.0 0.00 0.51 0.81 100 1016.0
20260508053102 9 184 0.0 0.0 0.00 0.51 0.81 100 1016.0
20260508053047 9 186 0.0 0.0 0.00 0.51 0.81 100 1016.1
20260508053030 10 187 0.0 0.0 0.00 0.51 0.81 100 1016.0
20260508052755 10 187 0.0 0.0 0.00 0.51 0.81 100 1015.8
20260508052516 9 189 0.0 0.0 0.00 0.51 0.81 100 1016.2
20260508052451 9 190 0.0 0.0 0.00 0.51 0.81 100 1016.3
20260508052436 9 190 0.0 0.0 0.00 0.51 0.81 100 1015.6
20260508052115 9 178 0.0 0.0 0.00 0.51 0.81 100 1015.9
20260508052036 9 185 0.0 0.0 0.00 0.51 0.81 100 1015.9
20260508052017 9 186 0.0 1.6 0.00 0.51 0.81 100 1015.9
20260508051950 9 185 0.0 1.6 0.00 0.51 0.81 100 1016.0
20260508051934 9 185 0.0 1.6 0.00 0.51 0.81 100 1016.2
20260508051919 9 185 0.0 1.6 0.00 0.51 0.81 100 1016.2
20260508051643 9 188 0.0 1.6 0.00 0.51 0.81 100 1015.9
20260508051636 9 188 0.0 1.6 0.00 0.51 0.81 100 1016.1
20260508051315 9 186 0.0 1.6 0.00 0.51 0.81 100 1015.9
20260508051216 9 186 0.0 1.6 0.00 0.51 0.81 100 1015.9
20260508051117 9 186 0.0 1.6 0.00 0.51 0.81 100 1016.0
20260508051038 9 146 0.0 0.0 0.00 0.51 0.81 100 1016.0
20260508051017 9 198 0.0 0.0 0.00 0.51 0.81 100 1015.7
20260508050916 9 186 0.0 0.0 0.00 0.51 0.81 100 1015.7
20260508050817 9 189 0.0 0.0 0.00 0.51 0.81 100 1016.0
20260508050717 9 191 0.0 0.0 0.00 0.51 0.81 100 1015.8
20260508050616 9 188 0.0 0.0 0.00 0.51 0.81 100 1015.8
20260508050536 9 188 0.0 0.0 0.00 0.51 0.81 100 1015.8
20260508050516 9 187 0.0 0.0 0.00 0.51 0.81 100 1015.9
20260508050415 9 191 0.0 0.0 0.00 0.51 0.81 100 1015.8
20260508050352 9 192 0.0 0.0 0.00 0.51 0.81 100 1015.9
20260508050337 9 185 0.0 0.0 0.00 0.51 0.81 100 1015.7
20260508050036 9 186 0.0 0.0 0.00 0.51 0.81 100 1015.8
20260508050016 9 184 0.0 0.0 0.00 0.51 0.81 100 1015.7
20260508045917 9 194 0.0 1.6 0.00 0.51 0.81 100 1015.6
20260508045816 9 190 0.0 1.6 0.00 0.51 0.81 100 1015.6
20260508045759 9 191 0.0 1.6 0.00 0.51 0.81 100 1015.5
20260508045742 9 185 0.0 1.6 0.00 0.51 0.81 100 1015.7
20260508045728 9 185 0.0 1.6 0.00 0.51 0.81 100 1015.7
20260508045416 9 188 0.0 1.6 0.00 0.51 0.81 100 1015.7
20260508045351 9 177 0.0 1.6 0.00 0.51 0.81 100 1015.6
20260508045336 9 175 0.0 1.6 0.00 0.51 0.81 100 1015.4
20260508045036 9 175 0.0 1.6 0.00 0.51 0.81 100 1015.5
20260508045017 9 116 0.0 1.6 0.00 0.51 0.81 100 1015.5
20260508044915 9 102 0.0 1.6 0.00 0.51 0.81 100 1015.6
20260508044832 9 195 0.0 0.0 0.00 0.51 0.81 100 1015.6
20260508044827 9 173 0.0 1.6 0.00 0.51 0.81 100 1015.7
20260508044811 9 199 0.0 1.6 0.00 0.51 0.81 100 1015.6
20260508044756 9 129 0.0 1.6 0.00 0.51 0.81 100 1015.6
20260508044518 9 184 0.0 0.0 0.00 0.51 0.81 100 1015.5
20260508044412 9 135 0.0 0.0 0.00 0.51 0.81 100 1015.6
20260508044313 9 188 0.0 0.0 0.00 0.51 0.81 100 1015.4
20260508044211 9 188 0.0 0.0 0.00 0.51 0.81 100 1015.6
20260508044113 9 186 0.0 0.0 0.00 0.51 0.81 100 1015.7
20260508044032 9 174 0.0 0.0 0.00 0.51 0.81 100 1015.7
20260508044012 9 172 0.0 0.0 0.00 0.51 0.81 100 1015.5
20260508043912 9 182 0.0 0.0 0.03 0.51 0.81 100 1015.6
20260508043851 9 188 0.0 0.0 0.03 0.51 0.81 100 1015.7
20260508043834 9 188 0.0 0.0 0.03 0.51 0.81 100 1015.3
20260508043533 9 186 0.0 0.0 0.03 0.51 0.81 100 1015.4
20260508043512 9 186 0.0 0.0 0.03 0.51 0.81 100 1015.6
20260508043412 9 184 0.0 0.0 0.03 0.51 0.81 100 1015.6
20260508043312 9 185 0.0 0.0 0.03 0.51 0.81 100 1015.4
20260508043213 9 184 0.0 0.0 0.03 0.51 0.81 100 1015.5
20260508043158 9 174 0.0 0.0 0.03 0.51 0.81 100 1015.4
20260508043140 9 182 0.0 0.0 0.03 0.51 0.81 100 1015.4
20260508043132 9 174 0.0 0.0 0.03 0.51 0.81 100 1015.3
20260508042812 9 180 0.0 0.0 0.03 0.51 0.81 100 1015.4
20260508042713 9 159 0.0 0.0 0.03 0.51 0.81 100 1015.4
20260508042612 9 176 0.0 0.0 0.03 0.51 0.81 100 1015.2
20260508042532 9 181 0.0 0.0 0.03 0.51 0.81 100 1015.2
20260508042513 9 180 0.0 0.0 0.03 0.51 0.81 100 1015.1
20260508042414 9 181 0.0 0.0 0.03 0.51 0.81 100 1015.3
20260508042315 9 163 0.0 0.0 0.03 0.51 0.81 100 1015.2
20260508042259 9 178 0.0 0.0 0.03 0.51 0.81 100 1015.1
20260508042242 9 178 0.0 1.6 0.03 0.51 0.81 100 1015.4
20260508042226 9 178 0.0 1.6 0.03 0.51 0.81 100 1015.4
20260508041912 9 184 0.0 1.6 0.03 0.51 0.81 100 1015.3
20260508041812 9 127 0.0 1.6 0.05 0.51 0.81 100 1015.3
20260508041712 9 183 0.0 1.6 0.05 0.51 0.81 100 1015.3
20260508041613 9 183 0.0 1.6 0.05 0.51 0.81 100 1015.3
20260508041533 9 162 0.0 1.6 0.05 0.51 0.81 100 1015.3
20260508041513 9 185 0.0 1.6 0.05 0.51 0.81 100 1015.4
20260508041500 9 185 0.0 1.6 0.05 0.51 0.81 100 1015.3
20260508041450 9 178 0.0 1.6 0.05 0.51 0.81 100 1015.4
20260508041434 9 184 0.0 1.6 0.05 0.51 0.81 100 1015.2
20260508041418 9 168 0.0 1.6 0.05 0.51 0.81 100 1015.3
20260508041402 9 185 0.0 1.6 0.05 0.51 0.81 100 1015.3
20260508041132 9 184 0.0 1.6 0.05 0.51 0.81 100 1015.3
20260508040812 9 184 0.0 1.6 0.05 0.51 0.81 100 1015.2
20260508040712 9 96 0.0 1.6 0.05 0.51 0.81 100 1015.2
20260508040655 9 128 0.0 1.6 0.05 0.51 0.81 100 1015.3
20260508040641 9 184 0.0 1.6 0.05 0.51 0.81 100 1015.3
20260508040633 9 184 0.0 1.6 0.05 0.51 0.81 100 1015.1
20260508040347 9 142 0.0 1.6 0.05 0.51 0.81 100 1015.0
20260508040332 9 170 0.0 1.6 0.05 0.51 0.81 100 1015.1
20260508040032 9 182 0.0 1.6 0.05 0.51 0.81 100 1015.1
20260508040013 9 182 0.0 1.6 0.05 0.51 0.81 100 1015.4
20260508035911 9 136 0.0 1.6 0.05 0.51 0.81 100 1015.1
20260508035812 9 157 0.0 1.6 0.05 0.51 0.81 100 1015.1
20260508035717 9 180 0.0 0.0 0.08 0.51 0.81 100 1015.1
20260508035612 9 182 0.0 0.0 0.08 0.51 0.81 100 1015.2
20260508035556 9 184 0.0 0.0 0.08 0.51 0.81 100 1015.0
20260508035547 9 193 0.0 0.0 0.08 0.51 0.81 100 1015.2
20260508035539 9 190 0.0 0.0 0.08 0.51 0.81 100 1015.2
20260508035524 9 185 0.0 0.0 0.08 0.51 0.81 100 1015.2
20260508035508 9 182 0.0 0.0 0.08 0.51 0.81 100 1015.1
20260508035453 9 184 0.0 0.0 0.08 0.51 0.81 100 1015.1
20260508035437 9 184 0.0 0.0 0.08 0.51 0.81 100 1015.0
20260508035207 9 155 0.0 0.0 0.08 0.51 0.81 100 1015.1
20260508034932 9 186 0.0 0.0 0.08 0.51 0.81 100 1015.0
20260508034646 9 186 0.0 1.6 0.08 0.51 0.81 100 1015.1
20260508034631 9 185 0.0 1.6 0.08 0.51 0.81 100 1015.1
20260508034622 9 175 0.0 1.6 0.08 0.51 0.81 100 1015.2
20260508034300 9 158 0.0 1.6 0.08 0.51 0.81 100 1015.1
20260508034147 10 180 0.0 1.6 0.08 0.51 0.81 100 1015.4
20260508034048 10 170 0.0 1.6 0.08 0.51 0.81 100 1015.1
20260508034032 10 179 0.0 1.6 0.08 0.51 0.81 100 1015.1
20260508033947 10 177 0.0 1.6 0.05 0.48 0.79 100 1015.2
20260508033848 10 172 0.0 1.6 0.05 0.48 0.79 100 1015.2
20260508033748 10 177 0.0 1.6 0.05 0.48 0.79 100 1015.0
20260508033648 10 198 0.0 0.0 0.05 0.48 0.79 100 1015.1
20260508033532 10 183 0.0 0.0 0.08 0.48 0.79 100 1015.1
20260508033449 10 190 0.0 0.0 0.08 0.48 0.79 100 1015.2
20260508033349 10 186 0.0 0.0 0.08 0.48 0.79 100 1015.1
20260508033248 10 189 0.0 0.0 0.08 0.48 0.79 100 1015.1
20260508033152 10 187 0.0 0.0 0.08 0.48 0.79 100 1015.1
20260508033135 10 185 0.0 0.0 0.08 0.48 0.79 100 1015.1
20260508033120 10 183 0.0 0.0 0.08 0.48 0.79 100 1015.1
20260508033110 10 186 0.0 0.0 0.08 0.48 0.79 100 1015.1
20260508032748 10 188 0.0 0.0 0.08 0.48 0.79 100 1015.1
20260508032647 10 188 0.0 0.0 0.08 0.48 0.79 100 1015.1
20260508032548 10 191 0.0 0.0 0.08 0.48 0.79 100 1015.0
20260508032532 10 191 0.0 1.6 0.08 0.48 0.79 100 1015.0
20260508032447 10 195 0.0 1.6 0.08 0.48 0.79 100 1015.2
20260508032349 10 192 0.0 1.6 0.10 0.48 0.79 100 1015.1
20260508032326 10 200 0.0 1.6 0.10 0.48 0.79 100 1015.1
20260508032310 10 176 0.0 1.6 0.10 0.48 0.79 100 1015.0
20260508032254 10 189 0.0 1.6 0.10 0.48 0.79 100 1015.1
20260508032241 10 191 0.0 1.6 0.10 0.48 0.79 100 1015.1
20260508032230 10 187 0.0 1.6 0.10 0.48 0.79 100 1015.2
20260508031648 10 174 0.0 1.6 0.10 0.46 0.76 100 1015.0
20260508031533 10 196 0.0 0.0 0.10 0.46 0.76 100 1015.1
20260508031449 10 170 0.0 0.0 0.10 0.46 0.76 100 1014.9
20260508031348 10 195 0.0 0.0 0.10 0.46 0.76 100 1015.1
20260508031248 10 153 0.0 0.0 0.13 0.46 0.76 100 1015.0
20260508031148 10 171 0.0 0.0 0.13 0.46 0.76 100 1014.8
20260508031117 10 179 0.0 1.6 0.15 0.46 0.76 100 1014.8
20260508031111 10 189 0.0 1.6 0.18 0.43 0.74 100 1014.6
20260508031107 10 177 0.0 1.6 0.20 0.43 0.74 100 1014.9
20260508031100 10 180 0.0 0.0 0.13 0.46 0.76 100 1014.8
20260508031046 10 186 0.0 0.0 0.13 0.46 0.76 100 1014.8
20260508031023 10 188 0.0 0.0 0.13 0.46 0.76 100 1014.8
20260508031006 10 191 0.0 0.0 0.13 0.46 0.76 100 1015.0
20260508030950 10 185 0.0 0.0 0.13 0.46 0.76 100 1015.0
20260508030935 10 187 0.0 0.0 0.13 0.46 0.76 100 1014.7
20260508030919 10 191 0.0 0.0 0.15 0.46 0.76 100 1014.8
20260508030908 10 186 0.0 0.0 0.15 0.46 0.76 100 1014.8
20260508030856 10 188 0.0 0.0 0.15 0.46 0.76 100 1014.8
20260508030839 10 186 0.0 1.6 0.15 0.46 0.76 100 1015.0
20260508030603 10 191 0.0 1.6 0.15 0.46 0.76 100 1014.9
20260508030546 10 169 0.0 1.6 0.15 0.46 0.76 100 1014.8
20260508030318 10 180 0.0 1.6 0.18 0.46 0.76 100 1014.8
20260508030302 10 186 0.0 1.6 0.18 0.46 0.76 100 1014.8
20260508030027 10 178 0.0 1.6 0.18 0.43 0.74 100 1014.7
20260508030010 10 189 0.0 1.6 0.18 0.43 0.74 100 1014.6
20260508025727 10 182 0.0 1.6 0.18 0.43 0.74 100 1014.8
20260508025711 10 198 0.0 0.0 0.20 0.43 0.74 100 1014.8
20260508025656 10 173 0.0 0.0 0.20 0.43 0.74 100 1014.7
20260508025421 10 171 0.0 1.6 0.20 0.43 0.74 100 1014.9
20260508024847 10 191 0.0 1.6 0.23 0.43 0.74 100 1014.5
20260508024748 10 186 0.0 1.6 0.23 0.43 0.74 100 1014.6
20260508024649 10 182 0.0 1.6 0.23 0.43 0.74 100 1014.7
20260508024548 10 188 0.0 1.6 0.23 0.43 0.74 100 1014.7
20260508024532 10 187 0.0 1.6 0.23 0.43 0.74 100 1014.7
20260508024448 10 188 0.0 1.6 0.23 0.43 0.74 100 1014.3
20260508024348 10 188 0.0 1.6 0.25 0.43 0.74 100 1014.7
20260508024332 10 187 0.0 1.6 0.28 0.43 0.74 100 1014.7
20260508024323 10 184 0.0 1.6 0.25 0.43 0.74 100 1014.5
20260508024307 10 195 0.0 1.6 0.25 0.43 0.74 100 1014.3
20260508024251 10 189 0.0 1.6 0.28 0.43 0.74 100 1014.7
20260508023943 10 190 0.0 1.6 0.30 0.43 0.74 100 1014.5
20260508023838 10 187 0.0 1.6 0.30 0.43 0.74 100 1014.5
20260508023737 10 188 0.0 1.6 0.30 0.43 0.74 100 1014.6
20260508023712 10 199 0.0 1.6 0.30 0.43 0.74 100 1014.3
20260508023649 10 195 0.0 0.0 0.30 0.41 0.74 100 1014.6
20260508023633 10 177 0.0 0.0 0.30 0.41 0.71 100 1014.5
20260508023617 10 188 0.0 0.0 0.30 0.41 0.71 100 1014.7
20260508023037 10 188 0.0 0.0 0.33 0.41 0.71 100 1014.2
20260508022937 10 188 0.0 0.0 0.33 0.41 0.71 100 1014.2
20260508022923 10 186 0.0 0.0 0.33 0.41 0.71 100 1014.5
20260508022919 10 186 0.0 1.6 0.33 0.38 0.69 100 1014.3
20260508022909 10 188 0.0 0.0 0.33 0.41 0.71 100 1014.2
20260508022853 10 187 0.0 0.0 0.33 0.41 0.71 100 1014.3
20260508022838 10 186 0.0 0.0 0.33 0.41 0.71 100 1014.2
20260508022821 10 186 0.0 0.0 0.33 0.41 0.71 100 1014.5
20260508022555 10 184 0.0 1.6 0.33 0.41 0.71 100 1014.5
20260508022538 10 185 0.0 1.6 0.30 0.38 0.69 100 1014.3
20260508022524 10 186 0.0 1.6 0.30 0.38 0.69 100 1014.5
20260508022508 10 185 0.0 1.6 0.30 0.38 0.69 100 1014.5
20260508022001 10 188 0.0 0.0 0.30 0.33 0.64 100 1014.2
20260508021957 10 176 0.0 4.8 0.25 0.25 0.56 100 1014.2
20260508021949 10 186 0.0 1.6 0.33 0.38 0.69 100 1014.2
20260508021933 10 169 0.0 1.6 0.33 0.38 0.69 100 1014.5
20260508021918 10 181 0.0 1.6 0.30 0.36 0.66 100 1014.5
20260508021901 10 173 0.0 1.6 0.30 0.36 0.66 100 1014.5
20260508021839 10 125 0.0 1.6 0.30 0.36 0.66 100 1014.3
20260508021823 10 185 0.0 0.0 0.30 0.36 0.66 100 1014.2
20260508021808 10 176 0.0 0.0 0.33 0.36 0.66 100 1014.2
20260508021752 10 187 0.0 0.0 0.30 0.33 0.64 100 1014.5
20260508021737 10 187 0.0 0.0 0.30 0.33 0.64 100 1014.2
20260508021247 10 188 0.0 0.0 0.30 0.33 0.64 100 1014.3
20260508021231 10 188 0.0 0.0 0.30 0.33 0.64 100 1014.3
20260508021215 10 188 0.0 0.0 0.30 0.33 0.64 100 1014.7
20260508020727 10 192 0.0 3.2 0.30 0.30 0.64 100 1014.3
20260508020711 10 190 0.0 3.2 0.30 0.30 0.61 100 1014.6
20260508020433 10 190 0.0 3.2 0.30 0.30 0.61 100 1014.7
20260508020418 10 188 0.0 3.2 0.30 0.30 0.61 100 1014.3
20260508020353 10 187 0.0 4.8 0.30 0.30 0.61 100 1014.3
20260508020337 10 186 0.0 4.8 0.28 0.28 0.61 100 1014.5
20260508020044 10 142 0.0 4.8 0.25 0.25 0.56 100 1014.2
20260508020027 10 176 0.0 4.8 0.25 0.25 0.56 100 1014.2
20260508015315 10 171 0.0 4.8 0.23 0.23 0.53 100 1014.5
20260508015259 10 135 0.0 4.8 0.23 0.23 0.53 100 1014.3
20260508015236 10 177 0.0 0.0 0.23 0.23 0.53 100 1014.6
20260508015206 10 180 0.0 0.0 0.20 0.20 0.53 100 1014.6
20260508014929 10 115 0.0 0.0 0.20 0.20 0.51 100 1014.6
20260508014913 10 168 0.0 0.0 0.20 0.20 0.51 100 1014.6
20260508014646 10 170 0.0 0.0 0.20 0.20 0.51 100 1014.6
20260508014629 10 191 0.0 0.0 0.20 0.20 0.51 100 1014.5
20260508014614 10 192 0.0 0.0 0.18 0.18 0.51 100 1014.5
20260508014558 10 191 0.0 0.0 0.18 0.18 0.48 100 1014.7
20260508014313 10 188 0.0 0.0 0.15 0.15 0.46 100 1014.5
20260508014257 10 186 0.0 0.0 0.13 0.13 0.46 100 1014.2
20260508013802 10 174 0.0 0.0 0.13 0.13 0.43 100 1014.6
20260508013536 10 182 0.0 0.0 0.10 0.10 0.41 100 1014.6
20260508013436 10 186 0.0 0.0 0.10 0.10 0.41 100 1014.6
20260508013338 10 185 0.0 0.0 0.10 0.10 0.41 100 1014.7
20260508013238 10 192 0.0 0.0 0.10 0.10 0.41 100 1014.7
20260508013136 10 192 0.0 0.0 0.10 0.10 0.41 100 1014.8
20260508013036 10 191 0.0 0.0 0.08 0.08 0.38 100 1014.7
20260508012936 10 190 0.0 0.0 0.08 0.08 0.38 100 1014.6
20260508012911 10 191 0.0 0.0 0.08 0.08 0.38 100 1014.8
20260508012856 10 190 0.0 0.0 0.08 0.08 0.38 100 1015.0
20260508012536 10 189 0.0 0.0 0.08 0.08 0.38 100 1014.8
20260508012437 10 188 0.0 0.0 0.08 0.08 0.38 100 1014.9
20260508012335 10 186 0.0 0.0 0.08 0.08 0.38 100 1014.7
20260508012236 10 188 0.0 0.0 0.08 0.08 0.38 100 1014.8
20260508012137 10 188 0.0 0.0 0.08 0.08 0.38 100 1014.7
20260508012036 10 187 0.0 0.0 0.05 0.05 0.38 100 1014.8
20260508011937 10 185 0.0 0.0 0.05 0.05 0.36 100 1014.9
20260508011836 10 192 0.0 0.0 0.05 0.05 0.36 100 1014.8
20260508011736 10 192 0.0 0.0 0.05 0.05 0.36 100 1014.7
20260508011637 10 192 0.0 0.0 0.05 0.05 0.36 100 1014.7
20260508011538 10 192 0.0 0.0 0.05 0.05 0.36 100 1014.8
20260508011512 10 192 0.0 0.0 0.05 0.05 0.36 100 1014.6
20260508011457 10 192 0.0 0.0 0.03 0.03 0.36 100 1015.0
20260508011135 10 190 0.0 0.0 0.03 0.03 0.33 100 1014.8
20260508011036 10 187 0.0 0.0 0.03 0.03 0.33 100 1014.8
20260508010938 10 190 0.0 0.0 0.03 0.03 0.33 100 1014.9
20260508010836 10 191 0.0 0.0 0.03 0.03 0.33 100 1014.9
20260508010736 10 172 0.0 0.0 0.03 0.03 0.33 100 1014.9
20260508010636 10 191 0.0 0.0 0.03 0.03 0.33 100 1014.6
20260508010536 10 193 0.0 0.0 0.00 0.00 0.33 100 1014.7
20260508010514 10 180 0.0 0.0 0.00 0.00 0.30 100 1014.6
20260508010506 10 191 0.0 0.0 0.00 0.00 0.30 100 1014.7
20260508010451 10 188 0.0 0.0 0.00 0.00 0.30 100 1014.7
20260508010424 10 191 0.0 0.0 0.00 0.00 0.30 100 1014.7
20260508010406 10 180 0.0 0.0 0.00 0.00 0.30 100 1014.6
20260508005836 10 188 0.0 0.0 0.00 0.00 0.30 100 1014.6
20260508005736 10 192 0.0 0.0 0.00 0.00 0.30 100 1014.6
20260508005637 10 196 0.0 0.0 0.00 0.00 0.30 100 1014.7
20260508005536 10 191 0.0 0.0 0.00 0.00 0.30 100 1014.8
20260508005435 10 191 0.0 0.0 0.00 0.00 0.30 100 1014.7
20260508005336 10 191 0.0 0.0 0.00 0.00 0.30 100 1014.7
20260508005238 10 192 0.0 0.0 0.00 0.00 0.30 100 1014.3
20260508005136 10 192 0.0 0.0 0.00 0.00 0.30 100 1014.6
20260508005034 10 198 0.0 0.0 0.00 0.00 0.30 100 1014.5
20260508004719 10 192 0.0 0.0 0.18 0.91 0.30 100 1014.5
20260508004606 10 188 0.0 0.0 0.20 0.91 0.30 100 1014.2
20260508004544 10 169 0.0 0.0 0.20 0.91 0.30 100 1014.3
20260508004528 10 145 0.0 0.0 0.18 0.89 0.28 100 1014.5
20260508004513 10 196 0.0 0.0 0.18 0.89 0.28 100 1014.3
20260508004229 10 193 0.0 0.0 0.20 0.89 0.28 100 1014.1
20260508003907 10 191 0.0 0.0 0.23 0.89 0.28 100 1014.2
20260508003806 10 191 0.0 0.0 0.25 0.89 0.28 100 1014.2
20260508003706 10 187 0.0 0.0 0.25 0.89 0.28 100 1014.1
20260508003605 10 187 0.0 0.0 0.28 0.89 0.28 100 1014.0
20260508003506 10 185 0.0 0.0 0.28 0.89 0.28 100 1014.6
20260508003405 10 131 0.0 0.0 0.28 0.89 0.28 100 1014.1
20260508003306 10 190 0.0 0.0 0.28 0.89 0.28 100 1014.2
20260508003207 10 188 0.0 0.0 0.28 0.89 0.28 100 1014.3
20260508003106 10 194 0.0 0.0 0.28 0.89 0.28 100 1014.3
20260508003007 10 196 0.0 1.6 0.28 0.89 0.28 100 1014.3
20260508002934 10 194 0.0 1.6 0.28 0.89 0.28 100 1014.3
20260508002927 10 196 0.0 1.6 0.28 0.89 0.28 100 1014.2
20260508002912 10 197 0.0 1.6 0.28 0.89 0.28 100 1014.3
20260508002856 10 186 0.0 1.6 0.28 0.89 0.28 100 1014.3
20260508002839 10 194 0.0 1.6 0.28 0.89 0.28 100 1014.3
20260508002613 10 195 0.0 1.6 0.28 0.89 0.28 100 1014.1
20260508002557 10 192 0.0 1.6 0.28 0.89 0.28 100 1014.3
20260508002321 10 194 0.0 1.6 0.28 0.89 0.28 100 1014.2
20260508002259 10 176 0.0 1.6 0.28 0.89 0.28 100 1014.3
20260508002240 10 178 0.0 0.0 0.28 0.89 0.28 100 1014.3
20260508002004 10 190 0.0 0.0 0.28 0.89 0.28 100 1014.2
20260508001947 10 188 0.0 0.0 0.25 0.86 0.25 100 1014.7
20260508001924 10 185 0.0 0.0 0.25 0.86 0.25 100 1014.1
20260508001909 10 188 0.0 0.0 0.25 0.86 0.25 100 1014.2
20260508001632 10 199 0.0 0.0 0.25 0.86 0.25 100 1014.1
20260508001144 10 183 0.0 1.6 0.23 0.84 0.23 100 1014.1
20260508001126 10 168 0.0 1.6 0.23 0.84 0.23 100 1014.2
20260508000849 10 194 0.0 1.6 0.23 0.84 0.23 100 1014.1
20260508000832 10 182 0.0 1.6 0.23 0.84 0.23 100 1014.3
20260508000605 10 188 0.0 1.6 0.23 0.84 0.23 100 1014.0
20260508000541 10 132 0.0 1.6 0.23 0.84 0.23 100 1014.0
20260508000526 11 187 0.0 1.6 0.20 0.81 0.20 100 1014.0
20260508000250 11 186 0.0 0.0 0.20 0.81 0.20 100 1014.2
20260508000228 11 187 0.0 0.0 0.18 0.79 0.20 100 1014.1
20260507235941 11 161 0.0 0.0 0.18 0.79 0.18 100 1014.2
20260507235924 11 188 0.0 0.0 0.18 0.79 0.18 100 1014.3
20260507235907 11 139 0.0 0.0 0.18 0.79 0.18 100 1014.2
20260507235844 11 188 0.0 0.0 0.15 0.76 0.18 100 1014.8
20260507235608 11 186 0.0 0.0 0.15 0.76 0.15 100 1014.3
20260507235332 11 190 0.0 0.0 0.15 0.76 0.15 100 1014.5
20260507235106 11 188 0.0 0.0 0.15 0.76 0.15 100 1014.6
20260507235006 11 186 0.0 0.0 0.15 0.76 0.15 100 1014.5
20260507234906 11 193 0.0 0.0 0.15 0.76 0.15 100 1014.2
20260507234848 11 194 0.0 0.0 0.13 0.74 0.15 100 1014.3
20260507234832 11 193 0.0 0.0 0.13 0.74 0.13 100 1014.5
20260507234606 11 179 0.0 0.0 0.10 0.71 0.10 100 1014.5
20260507234507 11 188 0.0 0.0 0.10 0.71 0.10 100 1014.5
20260507234407 11 188 0.0 0.0 0.10 0.71 0.10 100 1014.5
20260507234305 11 187 0.0 0.0 0.10 0.71 0.10 100 1014.3
20260507234206 11 187 0.0 0.0 0.08 0.69 0.10 100 1014.2
20260507234106 11 187 0.0 1.6 0.08 0.69 0.08 100 1014.3
20260507234006 11 186 0.0 1.6 0.08 0.69 0.08 100 1014.3
20260507233908 11 185 0.0 1.6 0.05 0.66 0.05 100 1014.5
20260507233806 11 183 0.0 1.6 0.03 0.64 0.03 100 1014.1
20260507233706 11 186 0.0 1.6 0.03 0.64 0.03 100 1014.5
20260507233606 11 184 0.0 1.6 0.00 0.61 0.00 100 1014.2
20260507233541 11 181 0.0 1.6 0.00 0.61 0.00 100 1014.3
20260507233526 11 131 0.0 1.6 0.00 0.61 0.00 100 1014.1
20260507233510 11 144 0.0 1.6 0.00 0.61 0.00 100 1014.3
20260507233455 11 209 0.0 1.6 0.00 0.61 0.00 100 1014.3
20260507233228 11 169 0.0 0.0 0.00 0.61 0.00 100 1014.3
20260507232906 11 192 0.0 0.0 0.00 0.61 0.00 100 1014.3
20260507232807 11 191 0.0 0.0 0.00 0.61 0.00 100 1014.5
20260507232749 11 187 0.0 0.0 0.00 0.61 0.00 100 1014.6
20260507232727 11 169 0.0 0.0 0.00 0.61 0.00 100 1014.5
20260507232430 11 186 0.0 0.0 0.00 0.61 0.00 100 1014.6
20260507232414 11 187 0.0 0.0 0.00 0.61 0.00 100 1014.5
20260507232359 11 187 0.0 0.0 0.00 0.61 0.00 100 1014.3
20260507232336 11 169 0.0 0.0 0.00 0.61 0.00 100 1014.5
20260507232318 11 177 0.0 0.0 0.00 0.61 0.00 100 1014.2
20260507232042 11 192 0.0 0.0 0.00 0.61 0.00 100 1014.5
20260507232026 11 191 0.0 0.0 0.00 0.61 0.00 100 1014.3
20260507231800 11 191 0.0 0.0 0.00 0.61 0.00 100 1014.5
20260507231745 11 187 0.0 0.0 0.00 0.61 0.00 100 1014.3
20260507231729 11 187 0.0 0.0 0.00 0.61 0.00 100 1014.3
20260507231713 11 187 0.0 0.0 0.00 0.61 0.00 100 1014.2
20260507231227 11 187 0.0 0.0 0.00 0.61 0.00 100 1014.2
20260507230907 11 187 0.0 0.0 0.00 0.61 0.00 100 1014.5
20260507230807 11 187 0.0 0.0 0.00 0.61 0.00 100 1014.3
20260507230707 11 187 0.0 0.0 0.00 0.61 0.00 100 1014.6
20260507230606 11 187 0.0 0.0 0.00 0.61 0.00 100 1014.3
20260507230541 11 174 0.0 1.6 0.00 0.61 0.00 100 1014.1
20260507230533 11 181 0.0 0.0 0.00 0.61 0.00 100 1014.3
20260507230518 11 191 0.0 1.6 0.00 0.61 0.00 100 1014.3
20260507230502 11 191 0.0 1.6 0.00 0.61 0.00 100 1014.2
20260507230446 11 191 0.0 1.6 0.00 0.61 0.00 100 1014.2
20260507230429 11 174 0.0 1.6 0.00 0.61 0.00 100 1014.1
20260507230201 11 172 0.0 1.6 0.00 0.61 0.00 100 1014.1
20260507230145 11 165 0.0 1.6 0.00 0.61 0.00 100 1014.2
20260507225909 11 181 0.0 1.6 0.00 0.61 0.00 100 1014.3
20260507225642 11 186 0.0 1.6 0.00 0.61 0.00 100 1014.3
20260507225626 11 196 0.0 1.6 0.00 0.61 0.00 100 1014.3
20260507225609 11 173 0.0 1.6 0.00 0.61 0.00 100 1014.3
20260507225554 11 181 0.0 1.6 0.00 0.61 0.00 100 1014.2
20260507225532 11 166 0.0 1.6 0.00 0.61 0.00 100 1014.5
20260507225306 11 184 0.0 1.6 0.00 0.61 0.00 100 1014.6
20260507225026 11 180 0.0 1.6 0.00 0.61 0.00 100 1014.5
20260507224748 11 170 0.0 1.6 0.00 0.61 0.00 100 1014.5
20260507224725 11 163 0.0 1.6 0.00 0.61 0.00 100 1014.2
20260507224441 11 184 0.0 0.0 0.00 0.61 0.00 100 1014.5
20260507224425 11 181 0.0 0.0 0.00 0.61 0.00 100 1014.5
20260507224106 11 186 0.0 0.0 0.00 0.61 0.00 100 1014.3
20260507224006 11 190 0.0 0.0 0.00 0.61 0.00 100 1014.3
20260507223907 11 188 0.0 0.0 0.00 0.61 0.00 100 1014.2
20260507223806 11 190 0.0 0.0 0.00 0.61 0.00 100 1014.2
20260507223706 11 182 0.0 0.0 0.00 0.61 0.00 100 1014.1
20260507223634 12 192 0.0 1.6 0.03 0.61 0.00 100 1014.0
20260507223621 11 184 0.0 0.0 0.00 0.61 0.00 100 1014.1
20260507223604 11 184 0.0 0.0 0.00 0.61 0.00 100 1014.2
20260507223548 11 182 0.0 0.0 0.00 0.61 0.00 100 1014.3
20260507223532 11 182 0.0 0.0 0.00 0.61 0.00 100 1014.3
20260507223516 11 182 0.0 0.0 0.00 0.61 0.00 100 1013.9
20260507223247 11 178 0.0 0.0 0.00 0.61 0.00 100 1014.1
20260507223023 11 179 0.0 0.0 0.00 0.61 0.00 100 1014.5
20260507223008 11 171 0.0 0.0 0.00 0.61 0.00 100 1014.2
20260507222952 11 181 0.0 0.0 0.00 0.61 0.00 100 1014.2
20260507222732 12 187 0.0 0.0 0.03 0.61 0.00 100 1014.3
20260507222724 11 159 0.0 0.0 0.00 0.61 0.00 100 1014.2
20260507222702 12 169 0.0 0.0 0.00 0.61 0.00 100 1014.2
20260507222646 12 147 0.0 0.0 0.00 0.61 0.00 100 1014.5
20260507222411 12 190 0.0 0.0 0.03 0.61 0.00 100 1014.1
20260507222356 12 188 0.0 0.0 0.03 0.61 0.00 100 1014.3
20260507222332 12 188 0.0 0.0 0.03 0.61 0.00 100 1014.3
20260507222316 12 186 0.0 0.0 0.03 0.61 0.00 100 1014.3
20260507222259 12 180 0.0 1.6 0.03 0.61 0.00 100 1014.6
20260507222244 12 192 0.0 1.6 0.03 0.61 0.00 100 1014.1
20260507222228 12 192 0.0 1.6 0.03 0.61 0.00 100 1014.2
20260507222210 12 192 0.0 1.6 0.03 0.61 0.00 100 1014.0
20260507221945 12 191 0.0 1.6 0.03 0.61 0.00 100 1014.2
20260507221929 12 191 0.0 1.6 0.03 0.61 0.00 100 1014.3
20260507221654 12 184 0.0 1.6 0.03 0.61 0.00 100 1014.1
20260507221629 12 181 0.0 1.6 0.03 0.61 0.00 100 1014.2
20260507221614 12 200 0.0 1.6 0.03 0.61 0.00 100 1014.1
20260507221337 12 188 0.0 0.0 0.03 0.61 0.00 100 1014.0
20260507221322 12 188 0.0 0.0 0.03 0.61 0.00 100 1014.0
20260507220407 12 183 0.0 0.0 0.03 0.61 0.00 100 1014.0
20260507220351 12 182 0.0 0.0 0.03 0.61 0.00 100 1013.8
20260507220336 12 191 0.0 0.0 0.03 0.61 0.00 100 1014.0
20260507220312 12 191 0.0 0.0 0.03 0.61 0.00 100 1014.2
20260507220037 12 191 0.0 0.0 0.03 0.61 0.89 100 1014.1
20260507220021 12 176 0.0 0.0 0.03 0.61 0.89 100 1014.0
20260507220006 12 184 0.0 0.0 0.03 0.61 0.89 100 1014.0
20260507215942 12 186 0.0 0.0 0.03 0.61 0.89 100 1013.9
20260507215708 12 186 0.0 0.0 0.03 0.61 0.89 100 1014.0
20260507215653 12 190 0.0 0.0 0.03 0.61 0.89 100 1013.8
20260507215636 12 191 0.0 0.0 0.03 0.61 0.89 100 1013.9
20260507215616 12 187 0.0 0.0 0.03 0.61 0.89 100 1014.0
20260507215132 12 186 0.0 0.0 0.03 0.61 0.89 100 1013.9
20260507215116 12 177 0.0 0.0 0.03 0.61 0.89 100 1013.7
20260507215101 12 176 0.0 0.0 0.03 0.61 0.89 100 1013.7
20260507214834 12 175 0.0 0.0 0.03 0.61 0.89 100 1013.9
20260507214558 12 184 0.0 0.0 0.03 0.61 0.89 100 1014.0
20260507214322 12 174 0.0 0.0 0.03 0.61 0.89 100 1013.9
20260507214054 12 182 0.0 0.0 0.03 0.61 0.89 100 1014.0
20260507213954 12 172 0.0 0.0 0.03 0.61 0.89 100 1013.8
20260507213932 12 177 0.0 0.0 0.03 0.61 0.89 100 1013.8
20260507213916 12 160 0.0 0.0 0.03 0.61 0.89 100 1013.9
20260507213859 12 180 0.0 0.0 0.03 0.61 0.89 100 1013.8
20260507213835 12 152 0.0 0.0 0.03 0.61 0.89 100 1013.8
20260507213818 12 185 0.0 0.0 0.03 0.61 0.89 100 1013.6
20260507213542 12 171 0.0 0.0 0.03 0.61 0.89 100 1013.5
20260507213054 12 175 0.0 0.0 0.03 0.61 0.89 100 1013.7
20260507212955 12 181 0.0 0.0 0.03 0.61 0.89 100 1013.6
20260507212929 12 182 0.0 0.0 0.03 0.61 0.89 100 1013.7
20260507212913 12 184 0.0 0.0 0.03 0.61 0.89 100 1013.6
20260507212554 12 186 0.0 0.0 0.03 0.61 0.89 100 1013.9
20260507212530 12 179 0.0 0.0 0.03 0.61 0.89 100 1014.0
20260507212514 12 183 0.0 0.0 0.00 0.58 0.86 100 1014.0
20260507212154 12 190 0.0 0.0 0.00 0.58 0.86 100 1014.0
20260507212054 12 187 0.0 0.0 0.00 0.58 0.86 100 1014.0
20260507211954 12 188 0.0 0.0 0.00 0.58 0.86 100 1013.9
20260507211854 12 183 0.0 0.0 0.00 0.58 0.86 100 1013.8
20260507211755 12 191 0.0 0.0 0.00 0.58 0.86 100 1014.1
20260507211656 12 191 0.0 0.0 0.00 0.58 0.86 100 1014.0
20260507211554 12 191 0.0 0.0 0.00 0.58 0.86 100 1014.0
20260507211532 12 191 0.0 0.0 0.00 0.58 0.86 100 1014.1
20260507211515 12 191 0.0 0.0 0.00 0.58 0.86 100 1013.9
20260507211154 12 191 0.0 0.0 0.00 0.58 0.86 100 1014.0
20260507211054 12 191 0.0 0.0 0.00 0.58 0.86 100 1013.8
20260507210955 12 191 0.0 0.0 0.00 0.58 0.86 100 1013.9
20260507210853 12 191 0.0 0.0 0.00 0.58 0.86 100 1014.0
20260507210754 12 191 0.0 0.0 0.00 0.58 0.86 100 1013.7
20260507210654 12 191 0.0 0.0 0.00 0.58 0.86 100 1013.7
20260507210555 12 191 0.0 0.0 0.00 0.58 0.86 100 1014.0
20260507210454 12 191 0.0 0.0 0.00 0.58 0.86 100 1013.7
20260507210356 12 191 0.0 0.0 0.03 0.58 0.86 100 1013.9
20260507210259 12 191 0.0 0.0 0.03 0.58 0.86 100 1013.8
20260507210243 12 191 0.0 0.0 0.03 0.58 0.86 100 1013.7
20260507210219 12 191 0.0 0.0 0.03 0.58 0.86 100 1013.9
20260507210150 12 191 0.0 0.0 0.03 0.58 0.86 100 1013.8
20260507205914 12 190 0.0 0.0 0.05 0.58 0.86 100 1013.6
20260507205554 12 191 0.0 0.0 0.05 0.58 0.86 100 1013.7
20260507205454 12 191 0.0 0.0 0.05 0.58 0.86 100 1013.9
20260507205354 12 191 0.0 0.0 0.05 0.58 0.86 100 1013.7
20260507205255 12 192 0.0 0.0 0.05 0.58 0.86 100 1013.8
20260507205153 12 194 0.0 0.0 0.05 0.58 0.86 100 1013.8
20260507205054 12 194 0.0 0.0 0.05 0.58 0.86 100 1013.8
20260507204955 12 194 0.0 0.0 0.05 0.58 0.86 100 1013.9
20260507204855 12 194 0.0 0.0 0.05 0.58 0.86 100 1014.0
20260507204755 12 194 0.0 0.0 0.05 0.58 0.86 100 1014.1
20260507204655 12 194 0.0 0.0 0.05 0.58 0.86 100 1013.9
20260507204554 12 194 0.0 0.0 0.05 0.58 0.86 100 1014.0
20260507204454 12 194 0.0 0.0 0.08 0.58 0.86 100 1013.9
20260507204356 12 194 0.0 0.0 0.08 0.58 0.86 100 1013.6
20260507204255 12 192 0.0 0.0 0.10 0.58 0.86 100 1013.9
20260507204154 12 192 0.0 0.0 0.10 0.58 0.86 100 1013.6
20260507204107 12 192 0.0 0.0 0.10 0.58 0.86 100 1013.7
20260507203954 12 192 0.0 0.0 0.10 0.58 0.86 100 1013.8
20260507203854 12 193 0.0 0.0 0.10 0.58 0.86 100 1013.8
20260507203753 12 192 0.0 0.0 0.10 0.58 0.86 100 1013.6
20260507203655 12 192 0.0 0.0 0.10 0.58 0.86 100 1013.6
20260507203554 12 193 0.0 0.0 0.10 0.58 0.86 100 1013.3
20260507203455 12 193 0.0 0.0 0.10 0.58 0.86 100 1013.5
20260507203354 12 193 0.0 0.0 0.13 0.58 0.86 100 1013.7
20260507203255 12 193 0.0 0.0 0.13 0.58 0.86 100 1013.5
20260507203154 12 192 0.0 0.0 0.13 0.58 0.86 100 1013.3
20260507203054 12 192 0.0 0.0 0.13 0.58 0.86 100 1013.5
20260507202953 12 192 0.0 0.0 0.13 0.58 0.86 100 1013.8
20260507202856 12 193 0.0 0.0 0.13 0.58 0.86 100 1013.3
20260507202840 12 192 0.0 0.0 0.13 0.58 0.86 100 1013.4
20260507202823 12 192 0.0 0.0 0.13 0.58 0.86 100 1013.4
20260507202556 12 192 0.0 0.0 0.13 0.58 0.86 100 1013.4
20260507202454 12 192 0.0 0.0 0.13 0.58 0.86 100 1013.4
20260507202354 12 192 0.0 0.0 0.13 0.58 0.86 100 1013.3
20260507202255 12 192 0.0 0.0 0.13 0.58 0.86 100 1013.2
20260507202154 12 192 0.0 0.0 0.13 0.58 0.86 100 1013.3
20260507202055 12 192 0.0 0.0 0.13 0.58 0.86 100 1013.3
20260507201953 12 192 0.0 0.0 0.13 0.58 0.86 100 1013.2
20260507201855 12 192 0.0 0.0 0.13 0.58 0.86 100 1013.3
20260507201755 12 192 0.0 0.0 0.13 0.58 0.86 100 1013.2
20260507201654 12 170 0.0 0.0 0.13 0.58 0.86 100 1013.3
20260507201554 12 192 0.0 1.6 0.13 0.58 0.86 100 1013.2
20260507201454 12 189 0.0 1.6 0.13 0.58 0.86 100 1013.3
20260507201354 12 194 0.0 1.6 0.13 0.58 0.86 100 1013.2
20260507201254 12 196 0.0 1.6 0.13 0.58 0.86 100 1013.3
20260507201154 12 196 0.0 1.6 0.13 0.58 0.86 100 1013.4
20260507201054 12 192 0.0 3.2 0.13 0.58 0.86 100 1013.3
20260507200954 12 192 0.0 4.8 0.13 0.58 0.86 100 1013.3
20260507200929 12 191 0.0 4.8 0.13 0.58 0.86 100 1013.4
20260507200914 12 190 0.0 4.8 0.13 0.58 0.86 100 1013.2
20260507200554 12 191 0.0 4.8 0.13 0.58 0.86 100 1013.2
20260507200455 12 183 0.0 4.8 0.13 0.58 0.86 100 1013.3
20260507200355 12 177 0.0 4.8 0.10 0.56 0.84 100 1013.1
20260507200255 12 114 0.0 4.8 0.10 0.56 0.84 100 1013.1
20260507200154 12 109 0.0 4.8 0.10 0.56 0.84 100 1012.9
20260507200108 12 49 3.2 4.8 0.10 0.56 0.84 100 1012.9
20260507200031 12 120 0.0 4.8 0.10 0.56 0.84 100 1012.8
20260507200015 12 92 1.6 4.8 0.08 0.53 0.81 100 1012.8
20260507200000 12 84 0.0 4.8 0.08 0.53 0.81 100 1012.8
20260507195943 12 57 1.6 4.8 0.08 0.53 0.81 100 1012.9
20260507195715 12 105 0.0 4.8 0.08 0.53 0.81 100 1012.9
20260507195354 12 108 0.0 4.8 0.08 0.53 0.81 100 1013.0
20260507195255 12 69 0.0 4.8 0.08 0.53 0.81 100 1012.7
20260507195155 12 58 1.6 4.8 0.08 0.53 0.81 100 1013.0
20260507195054 12 59 1.6 4.8 0.08 0.53 0.81 100 1013.0
20260507194954 12 79 0.0 1.6 0.08 0.53 0.81 100 1013.0
20260507194853 12 54 0.0 1.6 0.08 0.53 0.81 100 1013.0
20260507194754 12 94 0.0 1.6 0.08 0.53 0.81 100 1013.1
20260507194654 12 118 0.0 1.6 0.08 0.53 0.81 100 1013.1
20260507194555 12 151 0.0 1.6 0.08 0.53 0.81 100 1013.3
20260507194533 12 140 0.0 1.6 0.05 0.51 0.79 100 1013.4
20260507194516 12 151 0.0 1.6 0.05 0.51 0.79 100 1013.5
20260507194241 12 192 0.0 1.6 0.03 0.48 0.76 100 1013.5
20260507194215 12 199 0.0 1.6 0.03 0.48 0.76 100 1013.5
20260507193854 12 187 0.0 0.0 0.03 0.48 0.76 100 1013.5
20260507193754 12 187 0.0 0.0 0.03 0.48 0.76 100 1013.6
20260507193654 12 186 0.0 0.0 0.03 0.48 0.76 100 1013.7
20260507193554 12 186 0.0 0.0 0.03 0.48 0.76 100 1013.5
20260507193454 12 188 0.0 0.0 0.03 0.48 0.76 100 1013.6
20260507193359 12 188 0.0 0.0 0.00 0.46 0.74 100 1013.5
20260507193354 12 188 0.0 0.0 0.00 0.46 0.74 100 1013.5
20260507193339 12 188 0.0 0.0 0.00 0.46 0.74 100 1013.6
20260507193324 12 188 0.0 0.0 0.00 0.46 0.74 100 1013.5
20260507193304 12 188 0.0 0.0 0.00 0.46 0.74 100 1013.5
20260507193029 12 188 0.0 0.0 0.00 0.46 0.74 100 1013.5
20260507193013 12 188 0.0 0.0 0.00 0.46 0.74 100 1013.4
20260507192733 12 188 0.0 0.0 0.00 0.46 0.74 100 1013.7
20260507192711 12 188 0.0 0.0 0.00 0.46 0.74 100 1013.5
20260507192655 12 188 0.0 0.0 0.00 0.46 0.74 100 1013.5
20260507192431 12 188 0.0 0.0 0.00 0.46 0.74 100 1013.4
20260507192417 12 188 0.0 3.2 0.00 0.46 0.74 100 1013.1
20260507192401 12 188 0.0 3.2 0.00 0.46 0.74 100 1013.1
20260507192129 12 188 0.0 3.2 0.00 0.46 0.74 100 1013.3
20260507192112 12 188 0.0 4.8 0.00 0.46 0.74 100 1013.2
20260507192056 12 188 0.0 4.8 0.00 0.46 0.74 100 1013.1
20260507192041 12 190 0.0 4.8 0.00 0.46 0.74 100 1013.0
20260507192025 12 190 0.0 4.8 0.00 0.46 0.74 100 1013.2
20260507191454 12 183 0.0 4.8 0.00 0.46 0.74 100 1012.8
20260507191356 12 78 3.2 4.8 0.00 0.46 0.74 100 1012.8
20260507191340 12 49 0.0 4.8 0.00 0.46 0.74 100 1012.9
20260507191324 12 130 0.0 4.8 0.00 0.46 0.74 100 1012.8
20260507191305 12 78 3.2 4.8 0.00 0.46 0.74 100 1012.8
20260507191029 12 114 0.0 6.4 0.08 0.46 0.74 100 1012.4
20260507191019 12 155 0.0 4.8 0.00 0.46 0.74 100 1012.5
20260507191004 12 112 1.6 4.8 0.00 0.46 0.74 100 1012.8
20260507190948 12 153 0.0 4.8 0.03 0.46 0.74 100 1012.7
20260507190705 12 136 0.0 4.8 0.03 0.46 0.74 100 1012.6
20260507190649 12 67 0.0 4.8 0.03 0.46 0.74 100 1012.7
20260507190412 12 171 0.0 6.4 0.05 0.46 0.74 100 1012.7
20260507190355 12 58 3.2 6.4 0.05 0.46 0.74 100 1012.6
20260507190123 12 74 0.0 6.4 0.05 0.46 0.74 100 1012.6
20260507190054 12 146 0.0 6.4 0.05 0.46 0.74 100 1012.5
20260507190037 12 143 0.0 6.4 0.05 0.46 0.74 100 1012.6
20260507190022 12 112 0.0 6.4 0.05 0.46 0.74 100 1012.4
20260507190006 12 114 1.6 6.4 0.08 0.46 0.74 100 1012.6
20260507185949 12 114 0.0 6.4 0.08 0.46 0.74 100 1012.4
20260507185502 12 59 1.6 6.4 0.08 0.46 0.74 100 1012.4
20260507185213 12 127 1.6 6.4 0.36 0.46 0.74 100 1012.5
20260507185204 12 108 1.6 3.2 0.15 0.46 0.74 100 1012.6
20260507185140 12 157 0.0 3.2 0.18 0.46 0.74 100 1012.6
20260507185124 12 163 0.0 3.2 0.18 0.46 0.74 100 1012.3
20260507185109 12 91 0.0 3.2 0.20 0.46 0.74 100 1012.4
20260507185053 12 115 0.0 3.2 0.23 0.46 0.74 100 1012.5
20260507185037 12 169 0.0 6.4 0.25 0.46 0.74 100 1012.7
20260507185015 12 124 0.0 6.4 0.25 0.46 0.74 100 1012.3
20260507184959 12 162 0.0 6.4 0.28 0.46 0.74 100 1012.3
20260507184944 12 128 1.6 6.4 0.30 0.46 0.74 100 1012.3
20260507184928 12 146 0.0 6.4 0.30 0.46 0.74 100 1012.4
20260507184912 12 146 0.0 6.4 0.33 0.46 0.74 100 1012.3
20260507184423 12 66 1.6 6.4 0.36 0.46 0.74 100 1012.6
20260507184407 12 120 0.0 6.4 0.36 0.46 0.74 100 1012.5
20260507184131 12 144 0.0 6.4 0.36 0.46 0.74 100 1012.5
20260507183904 12 169 0.0 6.4 0.36 0.46 0.74 100 1012.4
20260507183402 12 104 0.0 4.8 0.36 0.46 0.74 100 1012.3
20260507183041 12 89 0.0 4.8 0.36 0.46 0.74 100 1012.3
20260507182941 12 56 1.6 4.8 0.36 0.46 0.74 100 1012.6
20260507182742 12 174 0.0 4.8 0.36 0.46 0.74 100 1012.3
20260507182642 12 159 0.0 4.8 0.36 0.46 0.74 100 1012.3
20260507182603 12 179 0.0 4.8 0.36 0.46 0.74 100 1012.4
20260507182548 12 167 0.0 4.8 0.36 0.46 0.74 100 1012.3
20260507182531 12 162 0.0 6.4 0.36 0.46 0.74 100 1012.4
20260507182042 12 73 0.0 6.4 0.36 0.46 0.74 100 1012.4
20260507182011 12 150 0.0 6.4 0.36 0.46 0.74 100 1012.2
20260507181955 12 132 0.0 6.4 0.36 0.46 0.74 100 1012.1
20260507181939 12 30 1.6 6.4 0.36 0.46 0.74 100 1012.1
20260507181921 12 104 1.6 6.4 0.36 0.46 0.74 100 1012.2
20260507181900 12 69 1.6 6.4 0.36 0.46 0.74 100 1012.3
20260507181844 12 148 0.0 11.3 0.36 0.46 0.74 100 1011.9
20260507181605 12 57 1.6 11.3 0.36 0.46 0.74 100 1012.3
20260507181322 12 53 1.6 11.3 0.36 0.46 0.74 100 1012.2
20260507180740 12 58 3.2 11.3 0.33 0.43 0.71 100 1012.1
20260507180642 12 97 1.6 11.3 0.33 0.43 0.71 100 1012.3
20260507180541 12 27 3.2 11.3 0.33 0.43 0.71 100 1012.1
20260507180441 12 34 4.8 6.4 0.33 0.43 0.71 100 1012.2
20260507180342 12 357 4.8 6.4 0.33 0.41 0.69 100 1012.1
20260507180241 12 24 3.2 6.4 0.33 0.41 0.69 100 1012.1
20260507180142 12 172 0.0 6.4 0.33 0.41 0.69 100 1012.1
20260507180054 12 184 0.0 6.4 0.33 0.41 0.69 100 1012.1
20260507175940 12 159 1.6 6.4 0.36 0.41 0.69 100 1012.0
20260507175841 12 84 1.6 6.4 0.36 0.41 0.69 100 1012.0
20260507175741 12 134 0.0 6.4 0.38 0.41 0.69 100 1012.0
20260507175716 12 150 0.0 6.4 0.38 0.38 0.69 100 1012.0
20260507175654 12 34 3.2 6.4 0.38 0.38 0.66 100 1012.0
20260507175637 12 83 1.6 6.4 0.38 0.38 0.66 100 1011.9
20260507175622 12 141 0.0 6.4 0.38 0.38 0.66 100 1011.8
20260507175040 13 178 0.0 3.2 0.28 0.28 0.58 100 1011.8
20260507174950 13 152 0.0 11.3 0.10 0.10 0.38 99 1011.0
20260507174944 14 62 4.8 6.4 0.00 0.00 0.10 95 1010.7
20260507174940 13 166 0.0 4.8 0.28 0.28 0.56 100 1011.4
20260507174928 13 130 0.0 11.3 0.10 0.10 0.38 99 1011.0
20260507174919 13 123 1.6 4.8 0.25 0.25 0.53 100 1011.8
20260507174902 13 174 1.6 4.8 0.23 0.23 0.53 100 1011.8
20260507174846 13 194 0.0 4.8 0.20 0.20 0.51 100 1011.9
20260507174824 13 186 0.0 4.8 0.20 0.20 0.48 100 1011.9
20260507174809 13 118 0.0 4.8 0.18 0.18 0.46 100 1012.0
20260507174753 13 157 0.0 4.8 0.15 0.15 0.43 100 1011.9
20260507174518 13 156 0.0 4.8 0.13 0.13 0.41 100 1012.0
20260507174453 13 189 1.6 4.8 0.10 0.10 0.41 100 1011.8
20260507174436 13 44 1.6 4.8 0.10 0.10 0.38 100 1011.6
20260507174200 13 158 0.0 4.8 0.10 0.10 0.38 100 1011.7
20260507174144 13 183 0.0 4.8 0.10 0.10 0.38 100 1011.6
20260507174121 13 183 0.0 4.8 0.10 0.10 0.38 100 1011.7
20260507173845 13 149 0.0 4.8 0.10 0.10 0.38 100 1011.6
20260507173828 13 176 0.0 4.8 0.10 0.10 0.38 100 1011.7
20260507173812 13 157 0.0 6.4 0.10 0.10 0.38 100 1011.7
20260507173543 13 109 0.0 6.4 0.10 0.10 0.38 100 1011.6
20260507173528 13 145 0.0 6.4 0.10 0.10 0.38 100 1011.2
20260507173512 13 58 3.2 11.3 0.10 0.10 0.38 100 1011.2
20260507173457 13 123 0.0 11.3 0.10 0.10 0.38 100 1011.1
20260507173219 13 130 0.0 11.3 0.10 0.10 0.38 99 1011.0
20260507172301 13 119 0.0 11.3 0.10 0.10 0.38 99 1011.0
20260507172245 13 59 3.2 11.3 0.10 0.10 0.38 99 1011.0
20260507172220 13 91 1.6 11.3 0.10 0.10 0.38 99 1010.7
20260507172205 13 94 4.8 11.3 0.10 0.10 0.38 99 1011.0
20260507171929 13 113 0.0 6.4 0.10 0.10 0.38 99 1010.8
20260507171705 13 60 1.6 9.7 0.10 0.10 0.38 99 1010.8
20260507171643 13 162 1.6 9.7 0.10 0.10 0.38 99 1010.7
20260507171627 13 52 1.6 9.7 0.10 0.10 0.38 99 1010.9
20260507171611 13 109 0.0 9.7 0.10 0.10 0.38 99 1010.7
20260507171335 13 105 1.6 11.3 0.10 0.10 0.38 99 1010.8
20260507171316 13 152 0.0 11.3 0.10 0.10 0.38 99 1011.0
20260507171050 13 168 0.0 11.3 0.10 0.10 0.38 99 1011.0
20260507171035 13 108 0.0 11.3 0.10 0.10 0.38 98 1010.9
20260507170758 13 50 3.2 11.3 0.10 0.10 0.38 98 1010.9
20260507170736 13 90 0.0 11.3 0.10 0.10 0.38 98 1011.1
20260507170719 13 33 3.2 11.3 0.10 0.10 0.38 98 1010.8
20260507170703 13 44 3.2 11.3 0.08 0.08 0.38 98 1010.7
20260507170428 13 112 0.0 6.4 0.08 0.08 0.36 98 1011.0
20260507170200 14 37 4.8 6.4 0.08 0.08 0.36 98 1011.0
20260507170144 14 138 0.0 6.4 0.05 0.05 0.33 98 1010.8
20260507170129 14 146 0.0 6.4 0.05 0.05 0.33 97 1011.0
20260507170112 13 151 0.0 6.4 0.03 0.03 0.30 97 1011.0
20260507170056 13 132 0.0 6.4 0.00 0.00 0.30 97 1010.9
20260507165830 14 39 3.2 6.4 0.00 0.00 0.28 97 1011.0
20260507165814 14 46 3.2 6.4 0.00 0.00 0.28 97 1010.9
20260507165759 14 165 0.0 6.4 0.00 0.00 0.28 96 1010.7
20260507165743 14 76 3.2 6.4 0.00 0.00 0.28 96 1010.9
20260507164747 14 53 3.2 16.1 0.25 0.28 0.28 95 1010.7
20260507164648 15 149 0.0 16.1 0.23 0.25 0.25 94 1010.8
20260507164549 15 175 0.0 16.1 0.20 0.23 0.23 94 1010.5
20260507164530 15 70 1.6 16.1 0.20 0.23 0.23 93 1010.5
20260507164513 15 165 0.0 16.1 0.13 0.15 0.15 93 1010.9
20260507164453 15 24 1.6 14.5 0.13 0.15 0.15 93 1010.8
20260507164437 15 107 0.0 14.5 0.10 0.13 0.15 93 1010.7
20260507164208 15 176 1.6 14.5 0.08 0.10 0.13 92 1010.6
20260507163847 15 43 4.8 14.5 0.08 0.10 0.10 91 1010.5
20260507163747 15 136 1.6 14.5 0.08 0.10 0.10 90 1010.5
20260507163647 15 50 8.0 14.5 0.08 0.10 0.10 90 1010.4
20260507163547 16 41 8.0 12.9 0.05 0.08 0.08 89 1010.5
20260507163447 16 75 1.6 12.9 0.00 0.03 0.05 88 1010.6
20260507163347 16 14 4.8 12.9 0.00 0.03 0.03 88 1010.6
20260507163246 16 40 4.8 11.3 0.00 0.03 0.03 87 1010.5
20260507163231 16 103 1.6 11.3 0.00 0.03 0.03 87 1010.5
20260507163207 16 77 1.6 11.3 0.00 0.03 0.03 86 1010.5
20260507162848 16 94 3.2 11.3 0.00 0.03 0.03 86 1010.5
20260507162819 16 107 0.0 11.3 0.00 0.03 0.03 86 1010.2
20260507162802 16 70 1.6 11.3 0.00 0.03 0.03 85 1010.4
20260507162740 16 133 0.0 11.3 0.00 0.03 0.03 85 1010.5
20260507162724 16 55 3.2 11.3 0.00 0.03 0.03 85 1010.4
20260507162448 16 41 3.2 11.3 0.00 0.03 0.03 84 1010.4
20260507162431 16 77 1.6 11.3 0.00 0.03 0.03 84 1010.4
20260507162406 16 28 3.2 11.3 0.00 0.03 0.03 83 1010.2
20260507162349 17 89 0.0 9.7 0.00 0.03 0.03 82 1010.2
20260507161552 17 173 0.0 6.4 0.00 0.03 0.03 79 1010.1
20260507161448 17 156 3.2 6.4 0.00 0.03 0.03 77 1010.4
20260507161354 18 88 1.6 6.4 0.00 0.03 0.03 73 1010.4
20260507161349 17 130 0.0 6.4 0.00 0.03 0.03 76 1010.2
20260507161333 18 53 1.6 6.4 0.00 0.03 0.03 76 1010.1
20260507161317 18 16 1.6 6.4 0.00 0.03 0.03 75 1010.1
20260507161257 18 88 1.6 6.4 0.00 0.03 0.03 73 1010.4
20260507160948 18 146 1.6 6.4 0.00 0.03 0.03 73 1010.4
20260507160848 18 75 1.6 6.4 0.00 0.03 0.03 72 1010.1
20260507160747 18 154 0.0 3.2 0.00 0.03 0.03 71 1010.0
20260507160722 18 60 3.2 3.2 0.00 0.03 0.03 70 1010.1
20260507160659 19 106 0.0 3.2 0.00 0.03 0.03 69 1010.0
20260507160643 19 63 3.2 3.2 0.00 0.03 0.03 69 1010.0
20260507160628 19 171 0.0 3.2 0.00 0.03 0.03 68 1010.0
20260507160059 20 153 0.0 0.0 0.00 0.03 0.03 66 1010.0
20260507155946 20 189 0.0 0.0 0.00 0.03 0.03 65 1010.0
20260507155847 20 192 0.0 0.0 0.00 0.03 0.03 65 1009.9
20260507155825 20 190 0.0 1.6 0.00 0.03 0.03 65 1009.7
20260507155817 20 193 0.0 0.0 0.00 0.03 0.03 65 1009.8
20260507155801 20 193 0.0 0.0 0.00 0.03 0.03 64 1010.0
20260507155739 20 192 0.0 0.0 0.00 0.03 0.03 64 1010.1
20260507155723 20 192 0.0 0.0 0.00 0.03 0.03 64 1010.1
20260507155707 20 191 0.0 0.0 0.00 0.03 0.03 64 1009.9
20260507155652 20 190 0.0 0.0 0.00 0.03 0.03 64 1010.0
20260507155636 20 191 0.0 0.0 0.00 0.03 0.03 65 1009.8
20260507155144 20 191 0.0 3.2 0.00 0.03 0.03 65 1009.7
20260507154909 20 192 0.0 3.2 0.00 0.03 0.03 65 1009.8
20260507154547 20 195 0.0 3.2 0.00 0.03 0.03 65 1009.9
20260507154447 20 195 0.0 3.2 0.00 0.03 0.03 64 1009.8
20260507154433 20 189 0.0 4.8 0.00 0.03 0.03 64 1009.8
20260507154424 20 195 0.0 4.8 0.00 0.03 0.03 64 1010.0
20260507154407 20 195 0.0 4.8 0.00 0.03 0.03 64 1009.6
20260507154123 20 226 3.2 4.8 0.00 0.03 0.03 64 1009.9
20260507154107 20 195 0.0 4.8 0.00 0.03 0.03 64 1009.7
20260507154052 20 192 0.0 4.8 0.00 0.03 0.03 64 1009.8
20260507154036 20 202 0.0 4.8 0.00 0.03 0.03 64 1009.8
20260507153758 20 189 0.0 4.8 0.00 0.03 0.03 64 1009.8
20260507153447 20 212 1.6 4.8 0.00 0.03 0.03 63 1009.8
20260507153348 20 207 1.6 1.6 0.00 0.03 0.03 64 1009.9
20260507153250 20 207 0.0 1.6 0.00 0.03 0.03 63 1010.0
20260507153234 20 190 0.0 1.6 0.00 0.03 0.03 63 1009.8
20260507153209 20 190 0.0 1.6 0.00 0.03 0.03 63 1009.9
20260507152847 20 194 0.0 0.0 0.00 0.03 0.03 64 1009.9
20260507152747 20 193 0.0 0.0 0.00 0.03 0.03 64 1009.9
20260507152646 20 195 0.0 0.0 0.00 0.03 0.03 64 1009.9
20260507152622 20 190 0.0 0.0 0.00 0.03 0.03 64 1010.0
20260507152606 20 190 0.0 0.0 0.00 0.03 0.03 64 1010.0
20260507152247 20 190 0.0 0.0 0.00 0.03 0.03 64 1010.1
20260507152147 20 191 0.0 3.2 0.00 0.03 0.03 64 1009.8
20260507152049 20 187 0.0 3.2 0.00 0.03 0.03 64 1009.9
20260507151947 20 188 0.0 3.2 0.00 0.03 0.03 64 1010.0
20260507151852 20 188 0.0 3.2 0.00 0.03 0.03 64 1009.9
20260507151836 20 187 0.0 3.2 0.00 0.03 0.03 65 1010.1
20260507151819 20 186 0.0 3.2 0.00 0.03 0.03 64 1009.9
20260507151552 20 185 0.0 3.2 0.00 0.03 0.03 64 1009.9
20260507151448 20 179 0.0 3.2 0.00 0.03 0.03 63 1009.9
20260507151347 20 183 0.0 3.2 0.00 0.03 0.03 64 1009.9
20260507151247 20 192 0.0 3.2 0.00 0.03 0.03 64 1009.8
20260507151148 20 162 0.0 1.6 0.00 0.03 0.03 64 1009.9
20260507151046 20 189 0.0 0.0 0.00 0.03 0.03 63 1009.9
20260507150947 20 189 0.0 0.0 0.00 0.03 0.03 64 1009.6
20260507150846 20 189 0.0 0.0 0.00 0.03 0.03 63 1010.0
20260507150748 20 189 0.0 1.6 0.00 0.03 0.03 63 1009.9
20260507150653 20 189 0.0 1.6 0.00 0.03 0.03 63 1009.7
20260507150548 20 188 0.0 1.6 0.00 0.03 0.03 64 1009.7
20260507150448 20 187 0.0 1.6 0.00 0.03 0.03 63 1010.0
20260507150348 20 186 0.0 1.6 0.00 0.03 0.03 63 1009.9
20260507150247 20 182 0.0 1.6 0.00 0.03 0.03 63 1010.0
20260507150146 20 189 0.0 1.6 0.00 0.03 0.03 63 1009.9
20260507150100 20 177 0.0 3.2 0.00 0.03 0.03 63 1009.8
20260507145947 20 184 0.0 3.2 0.00 0.03 0.03 63 1009.9
20260507145847 20 185 0.0 3.2 0.00 0.03 0.03 63 1009.8
20260507145825 21 187 0.0 6.4 0.00 0.03 0.03 57 1009.7
20260507145817 20 183 0.0 3.2 0.00 0.03 0.03 63 1009.4
20260507145801 20 189 0.0 3.2 0.00 0.03 0.03 63 1009.8
20260507145739 20 183 0.0 3.2 0.00 0.03 0.03 62 1009.5
20260507145723 21 162 0.0 6.4 0.00 0.03 0.03 62 1009.9
20260507145446 21 192 0.0 6.4 0.00 0.03 0.03 60 1009.6
20260507145430 21 67 1.6 6.4 0.00 0.03 0.03 59 1009.4
20260507145406 21 204 0.0 6.4 0.00 0.03 0.03 58 1009.5
20260507145350 21 184 0.0 6.4 0.00 0.03 0.03 58 1009.7
20260507144852 21 189 0.0 6.4 0.00 0.03 0.03 57 1009.8
20260507144835 21 187 0.0 6.4 0.00 0.03 0.03 57 1009.7
20260507144608 21 202 0.0 6.4 0.00 0.03 0.03 56 1009.7
20260507144247 21 190 0.0 6.4 0.00 0.03 0.03 56 1009.6
20260507144147 21 241 0.0 14.5 0.00 0.03 0.03 56 1009.5
20260507144047 21 189 0.0 14.5 0.00 0.03 0.03 56 1009.6
20260507143947 21 181 3.2 14.5 0.00 0.03 0.03 56 1009.7
20260507143847 21 189 0.0 14.5 0.00 0.03 0.03 57 1009.5
20260507143829 21 188 0.0 14.5 0.00 0.03 0.03 56 1009.5
20260507143814 21 184 0.0 14.5 0.00 0.03 0.03 56 1009.5
20260507143746 21 187 0.0 14.5 0.00 0.03 0.03 56 1009.6
20260507143509 21 307 4.8 14.5 0.00 0.03 0.03 55 1009.5
20260507143453 21 203 6.4 14.5 0.00 0.03 0.03 55 1009.8
20260507143208 21 199 0.0 9.7 0.00 0.03 0.03 56 1009.4
20260507142846 21 181 1.6 4.8 0.00 0.03 0.03 56 1009.5
20260507142749 22 192 0.0 4.8 0.00 0.03 0.03 56 1009.6
20260507142647 22 150 0.0 6.4 0.00 0.03 0.03 56 1009.9
20260507142549 22 192 0.0 6.4 0.00 0.03 0.03 55 1009.6
20260507142447 22 198 0.0 6.4 0.00 0.03 0.03 55 1009.8
20260507142347 22 225 0.0 6.4 0.00 0.03 0.03 56 1009.5
20260507142247 22 186 0.0 6.4 0.00 0.03 0.03 57 1009.5
20260507142236 21 182 0.0 16.1 0.00 0.03 0.03 57 1009.8
20260507142226 21 192 0.0 6.4 0.00 0.03 0.03 57 1009.7
20260507142202 21 234 1.6 6.4 0.00 0.03 0.03 56 1009.5
20260507142146 21 187 0.0 6.4 0.00 0.03 0.03 56 1009.7
20260507142130 21 170 0.0 12.9 0.00 0.03 0.03 56 1009.7
20260507142115 21 208 4.8 12.9 0.00 0.03 0.03 56 1009.9
20260507141836 21 182 0.0 16.1 0.00 0.03 0.03 57 1009.8
20260507141609 21 76 0.0 16.1 0.00 0.03 0.03 56 1009.6
20260507141554 21 204 0.0 16.1 0.00 0.03 0.03 56 1009.7
20260507141538 21 157 0.0 16.1 0.00 0.03 0.03 56 1009.9
20260507141048 21 182 0.0 16.1 0.00 0.03 0.03 55 1009.7
20260507140947 21 253 3.2 16.1 0.00 0.03 0.03 55 1009.5
20260507140847 21 183 0.0 17.7 0.00 0.03 0.03 55 1009.6
20260507140747 21 258 1.6 17.7 0.00 0.03 0.03 55 1009.7
20260507140701 22 236 1.6 17.7 0.00 0.03 0.03 55 1009.6
20260507140638 22 183 0.0 17.7 0.00 0.03 0.03 55 1009.4
20260507140622 22 95 0.0 17.7 0.00 0.03 0.03 54 1009.7
20260507140346 22 184 0.0 17.7 0.00 0.03 0.03 55 1009.5
20260507140330 22 160 0.0 17.7 0.00 0.03 0.03 56 1009.5
20260507140100 22 188 0.0 20.9 0.00 0.03 0.03 55 1009.5
20260507135947 22 226 4.8 20.9 0.00 0.03 0.03 53 1009.4
20260507135925 22 202 6.4 20.9 0.00 0.03 0.03 54 1009.5
20260507135909 22 196 11.3 20.9 0.00 0.03 0.03 54 1009.5
20260507135547 22 167 0.0 20.9 0.00 0.03 0.03 53 1009.6
20260507135448 22 210 1.6 22.5 0.00 0.03 0.03 53 1009.8
20260507135347 22 186 0.0 22.5 0.00 0.03 0.03 54 1009.6
20260507135247 21 188 0.0 22.5 0.00 0.03 0.03 54 1009.6
20260507135227 21 345 8.0 22.5 0.00 0.03 0.03 53 1009.6
20260507135202 21 194 6.4 22.5 0.00 0.03 0.03 53 1009.5
20260507135145 21 153 0.0 22.5 0.00 0.03 0.03 53 1009.5
20260507134909 21 235 3.2 22.5 0.00 0.03 0.03 52 1009.8
20260507134623 22 248 14.5 22.5 0.00 0.03 0.03 51 1009.5
20260507134608 22 196 1.6 12.9 0.00 0.03 0.03 51 1009.9
20260507134248 22 245 4.8 12.9 0.00 0.03 0.03 50 1009.9
20260507134147 22 247 3.2 12.9 0.00 0.03 0.03 50 1009.8
20260507134047 22 220 1.6 11.3 0.00 0.03 0.03 51 1009.9
20260507133947 22 202 1.6 11.3 0.00 0.03 0.03 51 1009.9
20260507133922 22 209 0.0 11.3 0.00 0.03 0.03 51 1009.8
20260507133907 22 188 0.0 11.3 0.00 0.03 0.03 51 1009.8
20260507133623 22 186 0.0 6.4 0.00 0.03 0.03 51 1009.7
20260507133608 22 192 0.0 11.3 0.00 0.03 0.03 53 1009.6
20260507133247 22 230 0.0 11.3 0.00 0.03 0.03 50 1009.9
20260507133147 22 220 0.0 11.3 0.00 0.03 0.03 51 1010.0
20260507133049 22 195 0.0 11.3 0.00 0.03 0.03 52 1009.9
20260507132948 22 189 0.0 11.3 0.00 0.03 0.03 53 1010.0
20260507132847 22 189 0.0 11.3 0.00 0.03 0.03 53 1010.1
20260507132822 22 201 1.6 11.3 0.00 0.03 0.03 53 1010.0
20260507132806 22 196 0.0 11.3 0.00 0.03 0.03 53 1010.2
20260507132743 22 226 4.8 11.3 0.00 0.03 0.03 51 1010.0
20260507132508 22 196 0.0 6.4 0.00 0.03 0.03 57 1009.8
20260507132452 22 197 0.0 4.8 0.00 0.03 0.03 55 1010.0
20260507132436 22 186 1.6 4.8 0.00 0.03 0.03 56 1009.8
20260507132207 22 124 0.0 6.4 0.00 0.03 0.03 58 1009.8
20260507131847 22 194 0.0 6.4 0.00 0.03 0.03 65 1009.7
20260507131747 22 203 0.0 6.4 0.00 0.03 0.03 63 1010.1
20260507131647 22 182 1.6 6.4 0.00 0.03 0.03 64 1009.7
20260507131548 22 195 0.0 6.4 0.00 0.03 0.03 64 1009.8
20260507131447 21 195 0.0 6.4 0.00 0.03 0.03 63 1009.8
20260507131431 21 206 0.0 11.3 0.00 0.03 0.03 63 1010.0
20260507131422 21 191 0.0 6.4 0.00 0.03 0.03 63 1009.8
20260507131406 21 187 0.0 9.7 0.00 0.03 0.03 63 1010.1
20260507131351 21 225 1.6 9.7 0.00 0.03 0.03 63 1010.0
20260507131332 21 206 0.0 11.3 0.00 0.03 0.03 63 1010.0
20260507131106 21 184 1.6 11.3 0.00 0.03 0.03 64 1010.0
20260507130747 21 198 0.0 16.1 0.00 0.03 0.03 63 1009.9
20260507130721 21 237 0.0 25.7 0.00 0.03 0.03 63 1009.9
20260507130659 21 202 0.0 25.7 0.00 0.03 0.03 64 1009.8
20260507130644 21 186 0.0 25.7 0.00 0.03 0.03 64 1009.9
20260507130408 21 215 3.2 25.7 0.00 0.03 0.03 64 1009.8
20260507125947 21 105 1.6 25.7 0.00 0.03 0.03 64 1009.8
20260507125847 21 252 9.7 25.7 0.00 0.03 0.03 64 1009.9
20260507125805 21 194 0.0 17.7 0.00 0.03 0.03 63 1009.8
20260507125750 21 213 11.3 20.9 0.00 0.03 0.03 64 1009.9
20260507125733 20 192 0.0 20.9 0.00 0.03 0.03 67 1009.8
20260507125716 20 188 0.0 20.9 0.00 0.03 0.03 67 1009.8
20260507125659 20 198 0.0 20.9 0.00 0.03 0.03 66 1010.0
20260507125424 20 216 8.0 20.9 0.00 0.03 0.03 67 1009.9
20260507125400 20 200 1.6 20.9 0.00 0.03 0.03 67 1009.8
20260507125124 20 194 3.2 20.9 0.00 0.03 0.03 66 1009.9
20260507125108 20 171 1.6 20.9 0.00 0.03 0.03 67 1009.9
20260507125053 20 233 11.3 20.9 0.00 0.03 0.03 67 1010.0
20260507124826 20 253 8.0 14.5 0.00 0.03 0.03 67 1009.8
20260507124551 20 183 3.2 14.5 0.00 0.03 0.03 67 1010.0
20260507124315 20 203 1.6 14.5 0.00 0.03 0.03 68 1010.1
20260507124047 20 214 0.0 14.5 0.00 0.03 0.03 68 1010.0
20260507123946 20 220 8.0 14.5 0.00 0.03 0.03 67 1009.9
20260507123906 20 232 9.7 14.5 0.00 0.03 0.03 67 1009.9
20260507123850 20 204 3.2 14.5 0.00 0.03 0.03 67 1010.0
20260507123834 20 237 4.8 14.5 0.00 0.03 0.03 66 1010.0
20260507123812 20 215 3.2 9.7 0.00 0.03 0.03 67 1010.0
20260507123755 20 221 4.8 6.4 0.00 0.03 0.03 68 1010.0
20260507123519 20 202 1.6 3.2 0.00 0.03 0.03 69 1010.2
20260507123234 20 196 0.0 1.6 0.00 0.03 0.03 69 1010.0
20260507123218 20 201 0.0 1.6 0.00 0.03 0.03 69 1009.9
20260507122941 20 196 0.0 1.6 0.00 0.03 0.03 69 1010.2
20260507122925 20 199 0.0 1.6 0.00 0.03 0.03 68 1010.1
20260507122902 20 198 0.0 1.6 0.00 0.03 0.03 69 1010.2
20260507122627 20 210 0.0 0.0 0.00 0.03 0.03 69 1010.4
20260507122047 20 191 0.0 0.0 0.00 0.03 0.03 70 1010.1
20260507121947 20 191 0.0 0.0 0.00 0.03 0.03 70 1010.1
20260507121854 20 190 0.0 0.0 0.00 0.03 0.03 71 1010.2
20260507121838 20 191 0.0 0.0 0.00 0.03 0.03 70 1010.2
20260507121823 20 190 0.0 0.0 0.00 0.03 0.03 70 1010.2
20260507121800 20 186 0.0 0.0 0.00 0.03 0.03 71 1010.1
20260507121523 20 187 0.0 0.0 0.00 0.03 0.03 73 1010.4
20260507121508 20 188 0.0 1.6 0.00 0.03 0.03 72 1010.2
20260507121451 20 189 0.0 1.6 0.00 0.03 0.03 71 1010.2
20260507121222 20 192 0.0 1.6 0.00 0.03 0.03 72 1010.1
20260507120923 20 185 0.0 1.6 0.00 0.03 0.03 72 1010.1
20260507120907 19 185 0.0 1.6 0.00 0.03 0.03 70 1010.2
20260507120547 19 180 0.0 1.6 0.00 0.03 0.03 71 1010.1
20260507120448 19 186 0.0 1.6 0.00 0.03 0.03 71 1010.0
20260507120359 19 178 0.0 1.6 0.00 0.03 0.03 71 1010.4
20260507120343 19 151 0.0 0.0 0.00 0.03 0.03 71 1010.1
20260507120328 19 164 0.0 0.0 0.03 0.03 0.03 71 1010.1
20260507120100 20 155 0.0 0.0 0.03 0.03 0.03 72 1010.2
20260507115947 20 177 0.0 0.0 0.03 0.03 0.03 74 1010.4
20260507115847 20 181 0.0 0.0 0.03 0.03 0.03 75 1010.1
20260507115747 20 190 0.0 0.0 0.03 0.03 0.03 76 1010.5
20260507115648 20 190 0.0 0.0 0.03 0.03 0.03 75 1010.1
20260507115547 20 189 0.0 0.0 0.03 0.03 0.03 75 1010.2
20260507115448 20 189 0.0 0.0 0.03 0.03 0.03 74 1010.0
20260507115348 20 185 0.0 0.0 0.03 0.03 0.03 73 1010.4
20260507115247 20 192 0.0 0.0 0.03 0.03 0.03 74 1010.1
20260507115148 20 192 0.0 0.0 0.03 0.03 0.03 75 1010.4
20260507115048 20 189 0.0 0.0 0.03 0.03 0.03 77 1010.1
20260507114947 20 194 0.0 0.0 0.03 0.03 0.03 78 1010.5
20260507114847 19 197 0.0 0.0 0.03 0.03 0.03 79 1010.4
20260507114747 19 196 0.0 0.0 0.03 0.03 0.03 79 1010.2
20260507114648 19 187 0.0 0.0 0.03 0.03 0.03 79 1010.2
20260507114624 19 179 0.0 0.0 0.03 0.03 0.03 79 1010.0
20260507114609 19 184 0.0 0.0 0.03 0.03 0.03 80 1010.5
20260507114323 19 185 0.0 0.0 0.03 0.03 0.03 82 1010.2
20260507114307 19 186 0.0 0.0 0.03 0.03 0.03 83 1010.4
20260507114243 18 190 0.0 0.0 0.03 0.03 0.03 83 1010.5
20260507114007 18 185 0.0 0.0 0.03 0.03 0.03 83 1010.2
20260507113647 18 188 0.0 0.0 0.03 0.03 0.03 84 1010.5
20260507113548 18 191 0.0 0.0 0.03 0.03 0.03 85 1010.4
20260507113509 18 189 0.0 0.0 0.03 0.03 0.03 86 1010.2
20260507113444 18 186 0.0 0.0 0.03 0.03 0.03 87 1010.6
20260507113428 18 189 0.0 0.0 0.03 0.03 0.03 87 1010.2
20260507113200 17 191 0.0 0.0 0.03 0.03 0.03 87 1010.1
20260507113144 17 189 0.0 0.0 0.03 0.03 0.03 88 1010.6
20260507112907 17 185 0.0 0.0 0.03 0.03 0.03 87 1010.4
20260507112623 17 185 0.0 0.0 0.03 0.03 0.03 88 1010.5
20260507112608 17 185 0.0 0.0 0.03 0.03 0.03 87 1010.4
20260507112247 17 185 0.0 0.0 0.03 0.03 0.03 86 1010.4
20260507112146 17 185 0.0 0.0 0.03 0.03 0.03 87 1010.4
20260507112119 17 186 0.0 0.0 0.03 0.03 0.03 87 1010.5
20260507112103 17 185 0.0 1.6 0.03 0.03 0.03 87 1010.5
20260507112048 17 179 0.0 1.6 0.03 0.03 0.03 87 1010.6
20260507112031 17 185 0.0 1.6 0.03 0.03 0.03 87 1010.4
20260507112014 17 178 0.0 1.6 0.03 0.03 0.03 87 1010.5
20260507111951 17 182 0.0 1.6 0.03 0.03 0.03 87 1010.4
20260507111713 17 184 0.0 1.6 0.03 0.03 0.03 85 1010.4
20260507111657 17 184 0.0 1.6 0.03 0.03 0.03 85 1010.5
20260507111208 17 174 0.0 1.6 0.03 0.03 0.03 83 1010.7
20260507110847 18 189 0.0 1.6 0.03 0.03 0.03 82 1010.5
20260507110747 18 191 0.0 1.6 0.03 0.03 0.03 81 1010.4
20260507110647 19 192 0.0 1.6 0.03 0.03 0.03 80 1010.2
20260507110549 19 192 0.0 1.6 0.03 0.03 0.03 79 1010.6
20260507110524 20 191 0.0 1.6 0.03 0.03 0.03 77 1010.4
20260507110508 20 192 0.0 1.6 0.03 0.03 0.03 75 1010.5
20260507110147 20 191 0.0 1.6 0.00 0.00 0.03 70 1010.7
20260507110100 20 187 0.0 3.2 0.00 0.00 0.00 69 1010.5
20260507105947 20 194 0.0 3.2 0.00 0.00 0.00 68 1010.5
20260507105848 20 192 0.0 3.2 0.00 0.00 0.00 67 1010.1
20260507105747 20 197 0.0 3.2 0.00 0.00 0.00 67 1010.0
20260507105647 20 202 0.0 3.2 0.00 0.00 0.00 67 1010.1
20260507105547 20 192 0.0 3.2 0.00 0.00 0.00 67 1010.2
20260507105448 20 194 0.0 3.2 0.00 0.00 0.00 67 1010.2
20260507105352 20 192 0.0 1.6 0.00 0.00 0.00 66 1010.2
20260507105348 20 194 0.0 3.2 0.00 0.00 0.00 66 1010.4
20260507105332 20 198 0.0 3.2 0.00 0.00 0.00 65 1010.4
20260507105316 20 212 3.2 3.2 0.00 0.00 0.00 65 1010.4
20260507105258 20 192 0.0 1.6 0.00 0.00 0.00 66 1010.2
20260507104947 20 200 0.0 1.6 0.00 0.00 0.00 67 1010.0
20260507104849 20 198 0.0 1.6 0.00 0.00 0.00 67 1010.1
20260507104833 20 194 0.0 1.6 0.00 0.00 0.00 69 1010.0
20260507104817 20 190 0.0 1.6 0.00 0.00 0.00 70 1010.1
20260507104549 20 198 0.0 3.2 0.00 0.00 0.00 71 1010.0
20260507104448 19 192 0.0 3.2 0.00 0.00 0.00 70 1010.1
20260507104423 19 276 0.0 3.2 0.00 0.00 0.00 71 1010.1
20260507104407 19 268 0.0 4.8 0.00 0.00 0.00 71 1010.2
20260507104352 19 193 0.0 6.4 0.00 0.00 0.00 71 1010.1
20260507104123 18 194 0.0 6.4 0.00 0.00 0.00 71 1010.0
20260507104107 18 178 0.0 6.4 0.00 0.00 0.00 71 1010.1
20260507103748 19 191 0.0 6.4 0.00 0.00 0.00 71 1010.4
20260507103731 19 191 0.0 6.4 0.00 0.00 0.00 71 1010.1
20260507103709 19 196 0.0 6.4 0.00 0.00 0.00 70 1010.1
20260507103351 18 193 1.6 4.8 0.00 0.00 0.00 71 1010.0
20260507103346 19 199 1.6 6.4 0.00 0.00 0.00 71 1010.0
20260507103331 19 211 1.6 4.8 0.00 0.00 0.00 71 1010.2
20260507103315 19 185 0.0 4.8 0.00 0.00 0.00 72 1010.1
20260507103257 18 193 1.6 4.8 0.00 0.00 0.00 71 1010.0
20260507102947 18 207 0.0 3.2 0.00 0.00 0.00 71 1010.0
20260507102846 18 168 0.0 3.2 0.00 0.00 0.00 71 1010.0
20260507102748 18 144 0.0 3.2 0.00 0.00 0.00 71 1009.8
20260507102647 19 137 1.6 3.2 0.00 0.00 0.00 72 1010.2
20260507102547 19 164 0.0 0.0 0.00 0.00 0.00 73 1009.9
20260507102447 19 183 0.0 0.0 0.00 0.00 0.00 72 1010.1
20260507102348 19 187 0.0 0.0 0.00 0.00 0.00 71 1010.4
20260507102246 19 186 0.0 0.0 0.00 0.00 0.00 71 1010.1
20260507102147 19 180 0.0 0.0 0.00 0.00 0.00 71 1010.1
20260507102047 19 182 0.0 0.0 0.00 0.00 0.00 71 1010.4
20260507101949 19 191 0.0 0.0 0.00 0.00 0.00 72 1010.0
20260507101848 19 174 0.0 0.0 0.00 0.00 0.00 73 1010.2
20260507101747 19 188 0.0 0.0 0.00 0.00 0.00 74 1010.1
20260507101725 19 179 0.0 0.0 0.00 0.00 0.00 73 1010.2
20260507101720 20 175 0.0 1.6 0.00 0.00 0.00 71 1010.4
20260507101713 19 190 0.0 0.0 0.00 0.00 0.00 74 1010.5
20260507101650 19 190 0.0 0.0 0.00 0.00 0.00 73 1010.4
20260507101635 19 189 0.0 0.0 0.00 0.00 0.00 73 1010.0
20260507101619 19 186 0.0 0.0 0.00 0.00 0.00 73 1010.1
20260507101603 19 183 0.0 0.0 0.00 0.00 0.00 74 1010.4
20260507101322 19 179 0.0 0.0 0.00 0.00 0.00 73 1010.2
20260507101057 19 145 0.0 0.0 0.00 0.00 0.00 73 1010.1
20260507101042 19 160 0.0 1.6 0.00 0.00 0.00 73 1010.4
20260507101026 19 173 0.0 1.6 0.00 0.00 0.00 74 1010.1
20260507101011 20 178 0.0 1.6 0.00 0.00 0.00 73 1010.2
20260507100744 20 160 0.0 1.6 0.00 0.00 0.00 72 1010.1
20260507100729 19 191 0.0 1.6 0.00 0.00 0.00 72 1010.2
20260507100452 20 187 0.0 1.6 0.00 0.00 0.00 71 1010.2
20260507100436 20 185 0.0 1.6 0.00 0.00 0.00 71 1010.2
20260507100416 20 175 0.0 1.6 0.00 0.00 0.00 71 1010.4
20260507095847 20 195 0.0 3.2 0.00 0.00 0.00 70 1010.4
20260507095748 20 180 0.0 4.8 0.00 0.00 0.00 70 1010.2
20260507095647 20 188 0.0 4.8 0.00 0.00 0.00 71 1010.1
20260507095549 20 180 0.0 4.8 0.00 0.00 0.00 71 1010.2
20260507095523 20 190 0.0 4.8 0.00 0.00 0.00 70 1009.9
20260507095507 20 180 0.0 4.8 0.00 0.00 0.00 70 1010.1
20260507095146 20 193 0.0 4.8 0.00 0.00 0.00 71 1010.0
20260507095059 20 237 0.0 4.8 0.00 0.00 0.00 72 1009.9
20260507095023 20 195 0.0 4.8 0.00 0.00 0.00 72 1010.1
20260507095007 19 192 0.0 1.6 0.00 0.00 0.00 73 1010.1
20260507094952 20 196 0.0 1.6 0.00 0.00 0.00 72 1010.4
20260507094710 20 189 0.0 1.6 0.00 0.00 0.00 72 1010.1
20260507094434 20 184 0.0 1.6 0.00 0.00 0.00 72 1010.1
20260507094418 20 188 0.0 1.6 0.00 0.00 0.00 72 1010.4
20260507094153 20 194 0.0 1.6 0.00 0.00 0.00 72 1010.1
20260507094128 19 188 0.0 1.6 0.00 0.00 0.00 72 1010.2
20260507094111 19 191 0.0 9.7 0.00 0.00 0.00 73 1010.0
20260507093847 19 190 0.0 16.1 0.00 0.00 0.00 73 1010.1
20260507093831 19 180 0.0 16.1 0.00 0.00 0.00 74 1010.0
20260507093815 20 84 0.0 16.1 0.00 0.00 0.00 72 1010.2
20260507093758 20 188 0.0 16.1 0.00 0.00 0.00 73 1009.9
20260507093525 20 186 0.0 16.1 0.00 0.00 0.00 73 1010.1
20260507093508 20 165 0.0 16.1 0.00 0.00 0.00 72 1010.2
20260507093452 20 152 0.0 16.1 0.00 0.00 0.00 70 1010.0
20260507093437 20 205 0.0 16.1 0.00 0.00 0.00 69 1010.0
20260507093207 20 186 0.0 16.1 0.00 0.00 0.00 69 1010.1
20260507092847 20 275 0.0 9.7 0.00 0.00 0.00 68 1010.0
20260507092748 21 137 3.2 9.7 0.00 0.00 0.00 68 1010.0
20260507092729 21 207 0.0 4.8 0.00 0.00 0.00 67 1010.1
20260507092707 21 224 0.0 4.8 0.00 0.00 0.00 67 1010.0
20260507092347 21 188 0.0 4.8 0.00 0.00 0.00 68 1010.0
20260507092258 20 192 0.0 3.2 0.00 0.00 0.00 69 1009.8
20260507092253 20 213 0.0 4.8 0.00 0.00 0.00 67 1010.0
20260507092237 20 192 0.0 4.8 0.00 0.00 0.00 69 1010.0
20260507092213 20 191 0.0 4.8 0.00 0.00 0.00 69 1010.0
20260507092157 20 226 1.6 4.8 0.00 0.00 0.00 70 1009.9
20260507092142 20 205 0.0 3.2 0.00 0.00 0.00 70 1010.1
20260507092125 20 191 0.0 3.2 0.00 0.00 0.00 70 1009.6
20260507091847 20 192 0.0 3.2 0.00 0.00 0.00 69 1009.8
20260507091608 20 196 0.0 3.2 0.00 0.00 0.00 69 1009.7
20260507091248 20 283 0.0 3.2 0.00 0.00 0.00 70 1009.7
20260507091147 20 193 0.0 3.2 0.00 0.00 0.00 70 1009.5
20260507091047 20 203 1.6 3.2 0.00 0.00 0.00 70 1009.8
20260507090947 20 189 0.0 1.6 0.00 0.00 0.00 71 1009.8
20260507090846 20 180 0.0 1.6 0.00 0.00 0.00 73 1009.8
20260507090747 19 191 0.0 1.6 0.00 0.00 0.00 74 1009.6
20260507090647 20 182 0.0 1.6 0.00 0.00 0.00 74 1009.9
20260507090547 20 171 0.0 3.2 0.00 0.00 0.00 73 1009.8
20260507090447 20 113 0.0 3.2 0.00 0.00 0.00 72 1009.6
20260507090349 20 185 0.0 3.2 0.00 0.00 0.00 73 1009.6
20260507090246 20 190 0.0 3.2 0.00 0.00 0.00 73 1009.8
20260507090147 19 189 0.0 3.2 0.00 0.00 0.00 73 1009.5
20260507090101 19 191 0.0 3.2 0.00 0.00 0.00 73 1009.5
20260507085947 19 173 0.0 3.2 0.00 0.00 0.00 74 1009.5
20260507085922 19 192 0.0 3.2 0.00 0.00 0.00 74 1009.5
20260507085907 20 184 0.0 3.2 0.00 0.00 0.00 74 1009.7
20260507085619 20 196 0.0 1.6 0.00 0.00 0.00 74 1009.5
20260507085603 20 209 1.6 1.6 0.00 0.00 0.00 73 1009.7
20260507085548 20 191 0.0 0.0 0.00 0.00 0.00 74 1009.3
20260507085533 20 190 0.0 0.0 0.00 0.00 0.00 75 1009.5
20260507085045 20 192 0.0 0.0 0.00 0.00 0.00 75 1009.4
20260507084713 20 192 0.0 6.4 0.00 0.00 0.00 72 1009.4
20260507084612 20 189 0.0 6.4 0.00 0.00 0.00 72 1009.4
20260507084514 20 188 0.0 6.4 0.00 0.00 0.00 73 1009.3
20260507084414 19 189 0.0 6.4 0.00 0.00 0.00 73 1009.3
20260507084313 19 219 1.6 6.4 0.00 0.00 0.00 74 1009.4
20260507084213 19 197 0.0 6.4 0.00 0.00 0.00 73 1009.5
20260507084116 19 191 0.0 6.4 0.00 0.00 0.00 73 1009.5
20260507084106 19 102 0.0 4.8 0.00 0.00 0.00 73 1009.5
20260507084057 19 206 0.0 6.4 0.00 0.00 0.00 74 1009.6
20260507084041 19 175 0.0 6.4 0.00 0.00 0.00 74 1009.6
20260507084023 19 102 0.0 4.8 0.00 0.00 0.00 73 1009.5
20260507083714 19 191 0.0 4.8 0.00 0.00 0.00 74 1009.6
20260507083613 19 139 0.0 4.8 0.00 0.00 0.00 75 1009.6
20260507083558 19 199 0.0 4.8 0.00 0.00 0.00 75 1009.5
20260507083543 18 184 0.0 4.8 0.00 0.00 0.00 75 1009.3
20260507083314 18 196 1.6 4.8 0.00 0.00 0.00 76 1009.5
20260507083215 18 198 0.0 3.2 0.00 0.00 0.00 76 1009.4
20260507083113 18 183 0.0 3.2 0.00 0.00 0.00 76 1009.4
20260507083055 18 150 0.0 1.6 0.00 0.00 0.00 76 1009.0
20260507083040 18 190 0.0 1.6 0.00 0.00 0.00 76 1009.5
20260507082814 18 204 0.0 1.6 0.00 0.00 0.00 77 1009.5
20260507082713 18 196 0.0 1.6 0.00 0.00 0.00 77 1009.3
20260507082651 18 204 0.0 1.6 0.00 0.00 0.00 78 1009.3
20260507082635 18 182 0.0 1.6 0.00 0.00 0.00 78 1009.4
20260507082313 18 185 0.0 1.6 0.00 0.00 0.00 78 1009.4
20260507082213 18 141 0.0 1.6 0.00 0.00 0.00 78 1009.5
20260507082153 18 180 0.0 1.6 0.00 0.00 0.00 77 1009.5
20260507082136 18 181 0.0 1.6 0.00 0.00 0.00 77 1009.4
20260507081905 18 168 0.0 1.6 0.00 0.00 0.00 77 1009.4
20260507081849 18 189 0.0 1.6 0.00 0.00 0.00 77 1009.2
20260507081834 18 181 0.0 1.6 0.00 0.00 0.00 77 1009.3
20260507081557 18 181 0.0 1.6 0.00 0.00 0.00 78 1009.3
20260507081542 18 117 0.0 1.6 0.00 0.00 0.00 77 1009.2
20260507081523 18 168 0.0 1.6 0.00 0.00 0.00 77 1009.4
20260507081213 18 189 0.0 1.6 0.00 0.00 0.00 78 1009.4
20260507081134 17 176 0.0 12.9 0.00 0.00 0.00 79 1009.4
20260507081127 18 192 0.0 4.8 0.00 0.00 0.00 78 1009.2
20260507081112 18 186 0.0 4.8 0.00 0.00 0.00 78 1009.1
20260507081056 18 119 0.0 4.8 0.00 0.00 0.00 78 1009.2
20260507081034 18 139 1.6 4.8 0.00 0.00 0.00 78 1009.0
20260507081017 18 147 0.0 4.8 0.00 0.00 0.00 78 1009.0
20260507081002 18 186 0.0 4.8 0.00 0.00 0.00 78 1009.3
20260507080947 17 229 0.0 4.8 0.00 0.00 0.00 78 1009.1
20260507080931 17 182 0.0 4.8 0.00 0.00 0.00 78 1009.3
20260507080701 17 178 0.0 4.8 0.00 0.00 0.00 79 1009.3
20260507080646 17 25 1.6 4.8 0.00 0.00 0.00 78 1009.2
20260507080630 17 196 0.0 3.2 0.00 0.00 0.00 79 1009.3
20260507080355 17 189 0.0 3.2 0.00 0.00 0.00 79 1009.1
20260507080338 17 176 0.0 12.9 0.00 0.00 0.00 79 1009.4
20260507075632 17 176 0.0 12.9 0.00 0.00 0.00 79 1009.1
20260507075347 18 206 0.0 12.9 0.00 0.00 0.00 78 1009.0
20260507075332 18 191 0.0 12.9 0.00 0.00 0.00 77 1009.0
20260507075317 18 182 0.0 12.9 0.00 0.00 0.00 77 1009.2
20260507075300 18 99 0.0 12.9 0.00 0.00 0.00 77 1009.2
20260507074813 18 187 0.0 16.1 0.00 0.00 0.00 77 1009.1
20260507074714 18 204 0.0 16.1 0.00 0.00 0.00 77 1009.1
20260507074649 18 223 1.6 16.1 0.00 0.00 0.00 77 1009.0
20260507074634 18 161 1.6 16.1 0.00 0.00 0.00 78 1009.0
20260507074618 18 187 0.0 16.1 0.00 0.00 0.00 78 1008.8
20260507074554 18 183 0.0 16.1 0.00 0.00 0.00 78 1008.9
20260507074013 18 201 4.8 16.1 0.00 0.00 0.00 77 1008.6
20260507073912 18 196 0.0 3.2 0.00 0.00 0.00 78 1008.8
20260507073813 18 171 0.0 3.2 0.00 0.00 0.00 78 1008.8
20260507073713 18 182 0.0 3.2 0.00 0.00 0.00 78 1008.7
20260507073613 17 183 0.0 4.8 0.00 0.00 0.00 78 1008.8
20260507073558 17 180 0.0 4.8 0.00 0.00 0.00 78 1008.7
20260507073542 17 189 0.0 4.8 0.00 0.00 0.00 78 1008.9
20260507073313 17 174 0.0 6.4 0.00 0.00 0.00 79 1008.9
20260507073249 17 278 0.0 14.5 0.00 0.00 0.00 79 1008.6
20260507073241 17 179 0.0 6.4 0.00 0.00 0.00 79 1008.6
20260507073226 17 162 0.0 6.4 0.00 0.00 0.00 78 1008.6
20260507073211 17 145 0.0 9.7 0.00 0.00 0.00 79 1008.6
20260507072928 17 188 0.0 9.7 0.00 0.00 0.00 79 1008.7
20260507072911 17 182 0.0 9.7 0.00 0.00 0.00 79 1008.6
20260507072855 17 185 0.0 9.7 0.00 0.00 0.00 80 1008.7
20260507072839 17 190 0.0 9.7 0.00 0.00 0.00 79 1008.7
20260507072823 17 167 1.6 14.5 0.00 0.00 0.00 79 1008.6
20260507072555 17 204 1.6 14.5 0.00 0.00 0.00 79 1008.7
20260507072538 17 191 0.0 14.5 0.00 0.00 0.00 79 1008.7
20260507072523 17 207 3.2 14.5 0.00 0.00 0.00 79 1008.8
20260507072025 17 278 0.0 14.5 0.00 0.00 0.00 79 1008.6
20260507071714 17 188 0.0 14.5 0.00 0.00 0.00 80 1008.7
20260507071614 17 194 0.0 14.5 0.00 0.00 0.00 80 1008.5
20260507071513 17 200 4.8 14.5 0.00 0.00 0.00 79 1008.6
20260507071414 17 172 0.0 6.4 0.00 0.00 0.00 79 1008.4
20260507071350 17 181 0.0 6.4 0.00 0.00 0.00 79 1008.7
20260507071333 17 152 0.0 6.4 0.00 0.00 0.00 79 1008.5
20260507071024 17 133 0.0 12.9 0.00 0.00 0.00 80 1008.4
20260507071020 17 201 0.0 16.1 0.00 0.00 0.00 80 1008.3
20260507071013 17 245 6.4 6.4 0.00 0.00 0.00 79 1008.5
20260507070958 17 189 0.0 4.8 0.00 0.00 0.00 80 1008.7
20260507070935 17 178 0.0 4.8 0.00 0.00 0.00 79 1008.6
20260507070918 17 187 0.0 4.8 0.00 0.00 0.00 80 1008.5
20260507070643 17 196 0.0 12.9 0.00 0.00 0.00 80 1008.6
20260507070626 17 187 0.0 12.9 0.00 0.00 0.00 80 1008.7
20260507070606 17 133 0.0 12.9 0.00 0.00 0.00 80 1008.4
20260507070340 17 209 1.6 12.9 0.00 0.00 0.00 80 1008.6
20260507070103 17 182 0.0 12.9 0.00 0.00 0.00 80 1008.4
20260507070047 17 181 0.0 16.1 0.00 0.00 0.00 81 1008.5
20260507070030 17 201 0.0 16.1 0.00 0.00 0.00 80 1008.3
20260507065804 17 200 3.2 16.1 0.00 0.00 0.00 80 1008.4
20260507065747 17 161 1.6 16.1 0.00 0.00 0.00 80 1008.5
20260507065731 17 194 0.0 16.1 0.00 0.00 0.00 80 1008.4
20260507065446 17 209 1.6 16.1 0.00 0.00 0.00 80 1008.5
20260507065211 17 223 0.0 16.1 0.00 0.00 0.00 80 1008.2
20260507065155 17 183 0.0 22.5 0.00 0.00 0.00 80 1008.3
20260507065139 17 232 6.4 22.5 0.00 0.00 0.00 79 1008.2
20260507065116 17 233 0.0 22.5 0.00 0.00 0.00 79 1008.3
20260507065101 17 187 0.0 22.5 0.00 0.00 0.00 80 1008.5
20260507064825 17 229 8.0 22.5 0.00 0.00 0.00 80 1008.2
20260507064809 16 157 1.6 22.5 0.00 0.00 0.00 80 1008.4
20260507064745 16 175 1.6 22.5 0.00 0.00 0.00 80 1008.3
20260507064250 16 251 3.2 11.3 0.00 0.00 0.00 81 1008.2
20260507064008 16 264 3.2 27.4 0.00 0.00 0.00 81 1008.4
20260507063733 16 239 3.2 27.4 0.00 0.00 0.00 82 1008.4
20260507063413 16 201 4.8 27.4 0.00 0.00 0.00 82 1008.2
20260507063313 16 180 0.0 27.4 0.00 0.00 0.00 82 1008.3
20260507063213 16 242 6.4 27.4 0.00 0.00 0.00 82 1008.4
20260507063113 16 233 4.8 27.4 0.00 0.00 0.00 82 1008.1
20260507063012 16 224 6.4 27.4 0.00 0.00 0.00 82 1008.1
20260507062914 16 228 9.7 20.9 0.00 0.00 0.00 81 1008.2
20260507062813 16 220 6.4 20.9 0.00 0.00 0.00 82 1008.3
20260507062713 16 224 1.6 20.9 0.00 0.00 0.00 81 1008.2
20260507062613 16 200 0.0 20.9 0.00 0.00 0.00 82 1008.2
20260507062513 16 186 0.0 20.9 0.00 0.00 0.00 82 1008.4
20260507062414 16 213 0.0 20.9 0.00 0.00 0.00 81 1008.4
20260507062313 16 242 6.4 20.9 0.00 0.00 0.00 81 1008.3
20260507062213 16 205 0.0 20.9 0.00 0.00 0.00 81 1008.3
20260507062113 16 258 14.5 20.9 0.00 0.00 0.00 81 1008.1
20260507062013 16 229 8.0 24.1 0.00 0.00 0.00 81 1008.3
20260507061913 16 208 6.4 24.1 0.00 0.00 0.00 81 1008.2
20260507061813 16 216 0.0 24.1 0.00 0.00 0.00 81 1008.1
20260507061713 16 216 1.6 24.1 0.00 0.00 0.00 81 1008.2
20260507061619 16 191 0.0 24.1 0.00 0.00 0.00 81 1008.2
20260507061614 16 231 0.0 24.1 0.00 0.00 0.00 81 1008.0
20260507061558 16 324 1.6 24.1 0.00 0.00 0.00 81 1008.4
20260507061542 16 235 1.6 24.1 0.00 0.00 0.00 81 1008.1
20260507061523 16 191 0.0 24.1 0.00 0.00 0.00 81 1008.2
20260507061214 16 237 3.2 24.1 0.00 0.00 0.00 80 1007.8
20260507061112 16 203 12.9 24.1 0.00 0.00 0.00 80 1007.8
20260507061014 16 330 3.2 16.1 0.00 0.00 0.00 81 1008.2
20260507060913 16 218 3.2 16.1 0.00 0.00 0.00 81 1008.2
20260507060813 16 180 0.0 16.1 0.00 0.00 0.00 81 1008.3
20260507060713 16 199 1.6 16.1 0.00 0.00 0.00 82 1008.1
20260507060612 16 190 0.0 16.1 0.00 0.00 0.00 82 1008.1
20260507060557 16 196 0.0 16.1 0.00 0.00 0.00 82 1007.8
20260507060541 16 249 6.4 16.1 0.00 0.00 0.00 82 1008.0
20260507060313 16 224 0.0 16.1 0.00 0.00 0.00 83 1008.0
20260507060215 16 255 1.6 16.1 0.00 0.00 0.00 82 1008.0
20260507060112 16 221 6.4 16.1 0.00 0.00 0.00 83 1008.0
20260507060012 16 80 1.6 16.1 0.00 0.00 0.00 83 1007.9
20260507055913 16 220 4.8 16.1 0.00 0.00 0.00 83 1008.1
20260507055813 16 204 6.4 16.1 0.00 0.00 0.00 83 1007.9
20260507055714 16 198 0.0 16.1 0.00 0.00 0.00 83 1008.1
20260507055613 15 236 6.4 16.1 0.00 0.00 0.00 83 1008.0
20260507055516 15 198 0.0 12.9 0.00 0.00 0.00 83 1008.2
20260507055500 15 212 1.6 12.9 0.00 0.00 0.00 84 1008.0
20260507055435 15 235 4.8 12.9 0.00 0.00 0.00 84 1007.8
20260507055115 15 211 0.0 9.7 0.00 0.00 0.00 85 1008.0
20260507055104 15 215 3.2 9.7 0.00 0.00 0.00 85 1008.0